| time (UTC) | temp C | wind direction | speed KPH | gust KPH | rain 1hr cm | rain 24hr cm | rain mn cm | humidity % | barometer mb |
| 20260506051403 | 13 | 86 | 9.7 | 20.9 | 0.00 | 0.18 | 0.05 | 91 | 1008.3 |
| 20260506051303 | 13 | 87 | 11.3 | 20.9 | 0.00 | 0.18 | 0.05 | 91 | 1008.3 |
| 20260506051203 | 13 | 87 | 11.3 | 20.9 | 0.00 | 0.18 | 0.05 | 91 | 1008.3 |
| 20260506051103 | 13 | 87 | 11.3 | 20.9 | 0.00 | 0.18 | 0.05 | 91 | 1008.3 |
| 20260506051003 | 13 | 86 | 11.3 | 20.9 | 0.00 | 0.18 | 0.05 | 91 | 1008.3 |
| 20260506050903 | 13 | 86 | 11.3 | 20.9 | 0.00 | 0.18 | 0.05 | 91 | 1008.2 |
| 20260506050803 | 13 | 85 | 9.7 | 20.9 | 0.00 | 0.18 | 0.05 | 91 | 1008.2 |
| 20260506050703 | 13 | 85 | 11.3 | 20.9 | 0.00 | 0.18 | 0.05 | 91 | 1008.2 |
| 20260506050603 | 13 | 85 | 11.3 | 20.9 | 0.00 | 0.18 | 0.05 | 91 | 1008.2 |
| 20260506050503 | 13 | 84 | 11.3 | 20.9 | 0.03 | 0.18 | 0.05 | 91 | 1008.2 |
| 20260506050403 | 13 | 85 | 9.7 | 19.3 | 0.03 | 0.18 | 0.05 | 91 | 1008.3 |
| 20260506050303 | 13 | 84 | 11.3 | 19.3 | 0.03 | 0.18 | 0.05 | 91 | 1008.3 |
| 20260506050203 | 13 | 83 | 9.7 | 19.3 | 0.03 | 0.18 | 0.05 | 91 | 1008.3 |
| 20260506050103 | 13 | 84 | 9.7 | 19.3 | 0.03 | 0.18 | 0.05 | 91 | 1008.3 |
| 20260506045103 | 13 | 95 | 6.4 | 12.9 | 0.05 | 0.18 | 0.05 | 91 | 1008.7 |
| 20260506045003 | 13 | 94 | 6.4 | 12.9 | 0.05 | 0.18 | 0.05 | 91 | 1008.7 |
| 20260506044903 | 13 | 94 | 6.4 | 14.5 | 0.05 | 0.18 | 0.05 | 91 | 1008.6 |
| 20260506044803 | 13 | 92 | 6.4 | 14.5 | 0.05 | 0.18 | 0.05 | 91 | 1008.7 |
| 20260506044703 | 13 | 92 | 6.4 | 14.5 | 0.05 | 0.18 | 0.05 | 91 | 1008.7 |
| 20260506044603 | 13 | 92 | 6.4 | 14.5 | 0.05 | 0.18 | 0.05 | 91 | 1008.7 |
| 20260506044503 | 13 | 93 | 6.4 | 14.5 | 0.05 | 0.18 | 0.05 | 91 | 1008.7 |
| 20260506044403 | 13 | 94 | 8.0 | 17.7 | 0.05 | 0.18 | 0.05 | 91 | 1008.8 |
| 20260506044303 | 13 | 92 | 8.0 | 17.7 | 0.05 | 0.18 | 0.05 | 91 | 1008.8 |
| 20260506044203 | 13 | 92 | 8.0 | 17.7 | 0.05 | 0.18 | 0.05 | 90 | 1008.8 |
| 20260506044103 | 13 | 91 | 8.0 | 17.7 | 0.05 | 0.18 | 0.05 | 91 | 1008.7 |
| 20260506044003 | 13 | 91 | 8.0 | 17.7 | 0.05 | 0.18 | 0.05 | 90 | 1008.6 |
| 20260506043903 | 13 | 93 | 8.0 | 17.7 | 0.05 | 0.18 | 0.05 | 91 | 1008.6 |
| 20260506043803 | 13 | 94 | 6.4 | 17.7 | 0.05 | 0.18 | 0.05 | 91 | 1008.8 |
| 20260506043703 | 13 | 94 | 8.0 | 17.7 | 0.05 | 0.18 | 0.05 | 91 | 1008.8 |
| 20260506043603 | 13 | 95 | 8.0 | 17.7 | 0.05 | 0.18 | 0.05 | 91 | 1008.8 |
| 20260506043503 | 13 | 95 | 8.0 | 17.7 | 0.05 | 0.18 | 0.05 | 91 | 1008.8 |
| 20260506043403 | 13 | 94 | 8.0 | 17.7 | 0.05 | 0.18 | 0.05 | 91 | 1008.8 |
| 20260506043303 | 13 | 98 | 6.4 | 14.5 | 0.05 | 0.18 | 0.05 | 91 | 1008.9 |
| 20260506043203 | 13 | 97 | 6.4 | 16.1 | 0.05 | 0.18 | 0.05 | 91 | 1008.9 |
| 20260506043103 | 13 | 98 | 6.4 | 16.1 | 0.05 | 0.18 | 0.05 | 90 | 1009.0 |
| 20260506043003 | 13 | 101 | 6.4 | 16.1 | 0.05 | 0.18 | 0.05 | 91 | 1009.0 |
| 20260506042903 | 13 | 102 | 6.4 | 16.1 | 0.05 | 0.18 | 0.05 | 91 | 1009.0 |
| 20260506042803 | 13 | 106 | 6.4 | 16.1 | 0.05 | 0.18 | 0.05 | 90 | 1009.1 |
| 20260506042703 | 13 | 107 | 6.4 | 16.1 | 0.05 | 0.18 | 0.05 | 90 | 1009.1 |
| 20260506042603 | 13 | 108 | 6.4 | 16.1 | 0.05 | 0.18 | 0.05 | 90 | 1009.1 |
| 20260506042503 | 13 | 108 | 6.4 | 16.1 | 0.05 | 0.18 | 0.05 | 90 | 1009.1 |
| 20260506042403 | 13 | 110 | 6.4 | 16.1 | 0.05 | 0.18 | 0.05 | 90 | 1009.1 |
| 20260506042305 | 13 | 109 | 6.4 | 16.1 | 0.05 | 0.18 | 0.05 | 90 | 1009.1 |
| 20260506042203 | 13 | 108 | 4.8 | 14.5 | 0.05 | 0.18 | 0.05 | 90 | 1009.1 |
| 20260506042103 | 13 | 107 | 6.4 | 14.5 | 0.05 | 0.18 | 0.05 | 90 | 1009.1 |
| 20260506042003 | 13 | 105 | 6.4 | 14.5 | 0.05 | 0.18 | 0.05 | 90 | 1009.2 |
| 20260506041903 | 13 | 103 | 6.4 | 16.1 | 0.05 | 0.18 | 0.05 | 90 | 1009.2 |
| 20260506041803 | 13 | 100 | 6.4 | 16.1 | 0.05 | 0.18 | 0.05 | 90 | 1009.1 |
| 20260506041703 | 13 | 99 | 6.4 | 16.1 | 0.05 | 0.18 | 0.05 | 90 | 1009.1 |
| 20260506041603 | 13 | 98 | 8.0 | 16.1 | 0.05 | 0.18 | 0.05 | 90 | 1009.1 |
| 20260506041503 | 13 | 97 | 6.4 | 16.1 | 0.05 | 0.18 | 0.05 | 90 | 1009.1 |
| 20260506041403 | 13 | 97 | 6.4 | 16.1 | 0.05 | 0.18 | 0.05 | 90 | 1009.1 |
| 20260506041303 | 13 | 98 | 6.4 | 16.1 | 0.05 | 0.18 | 0.05 | 90 | 1009.1 |
| 20260506041203 | 13 | 99 | 6.4 | 16.1 | 0.05 | 0.18 | 0.05 | 90 | 1009.2 |
| 20260506041103 | 13 | 98 | 6.4 | 16.1 | 0.05 | 0.18 | 0.05 | 90 | 1009.2 |
| 20260506041003 | 13 | 99 | 6.4 | 16.1 | 0.05 | 0.18 | 0.05 | 90 | 1009.1 |
| 20260506040903 | 13 | 98 | 6.4 | 16.1 | 0.05 | 0.18 | 0.05 | 90 | 1009.3 |
| 20260506040803 | 13 | 100 | 6.4 | 14.5 | 0.05 | 0.18 | 0.05 | 90 | 1009.3 |
| 20260506040703 | 13 | 99 | 4.8 | 14.5 | 0.05 | 0.18 | 0.05 | 90 | 1009.3 |
| 20260506040603 | 13 | 101 | 4.8 | 14.5 | 0.05 | 0.18 | 0.05 | 90 | 1009.3 |
| 20260506040503 | 13 | 101 | 4.8 | 14.5 | 0.05 | 0.15 | 0.05 | 90 | 1009.3 |
| 20260506040403 | 13 | 101 | 4.8 | 14.5 | 0.05 | 0.15 | 0.05 | 90 | 1009.4 |
| 20260506040303 | 13 | 99 | 4.8 | 14.5 | 0.05 | 0.15 | 0.05 | 90 | 1009.4 |
| 20260506040203 | 13 | 100 | 4.8 | 14.5 | 0.05 | 0.15 | 0.05 | 90 | 1009.4 |
| 20260506040004 | 13 | 105 | 6.4 | 12.9 | 0.05 | 0.15 | 0.05 | 90 | 1009.3 |
| 20260506035903 | 13 | 109 | 6.4 | 12.9 | 0.03 | 0.15 | 0.03 | 90 | 1009.3 |
| 20260506035803 | 13 | 109 | 6.4 | 12.9 | 0.03 | 0.15 | 0.03 | 90 | 1009.3 |
| 20260506035703 | 13 | 114 | 6.4 | 12.9 | 0.03 | 0.15 | 0.03 | 90 | 1009.4 |
| 20260506035603 | 13 | 114 | 6.4 | 12.9 | 0.03 | 0.15 | 0.03 | 90 | 1009.4 |
| 20260506035503 | 13 | 117 | 6.4 | 12.9 | 0.03 | 0.15 | 0.03 | 90 | 1009.4 |
| 20260506035403 | 13 | 119 | 6.4 | 12.9 | 0.03 | 0.15 | 0.03 | 90 | 1009.4 |
| 20260506035305 | 13 | 121 | 6.4 | 12.9 | 0.03 | 0.15 | 0.03 | 90 | 1009.4 |
| 20260506035203 | 13 | 121 | 6.4 | 12.9 | 0.00 | 0.13 | 0.00 | 90 | 1009.5 |
| 20260506035103 | 13 | 123 | 6.4 | 12.9 | 0.00 | 0.13 | 0.00 | 90 | 1009.5 |
| 20260506035004 | 13 | 122 | 6.4 | 12.9 | 0.00 | 0.13 | 0.00 | 90 | 1009.5 |
| 20260506034903 | 13 | 121 | 6.4 | 12.9 | 0.00 | 0.13 | 0.00 | 90 | 1009.6 |
| 20260506034803 | 13 | 121 | 6.4 | 12.9 | 0.00 | 0.13 | 0.00 | 90 | 1009.6 |
| 20260506034703 | 13 | 120 | 6.4 | 12.9 | 0.00 | 0.13 | 0.00 | 90 | 1009.6 |
| 20260506034603 | 13 | 122 | 6.4 | 12.9 | 0.00 | 0.13 | 0.00 | 90 | 1009.5 |
| 20260506034503 | 13 | 122 | 6.4 | 12.9 | 0.00 | 0.13 | 0.00 | 90 | 1009.5 |
| 20260506034403 | 13 | 122 | 6.4 | 12.9 | 0.00 | 0.13 | 0.00 | 90 | 1009.6 |
| 20260506034303 | 13 | 122 | 6.4 | 12.9 | 0.00 | 0.13 | 0.00 | 90 | 1009.6 |
| 20260506034203 | 13 | 122 | 6.4 | 12.9 | 0.00 | 0.13 | 0.00 | 90 | 1009.5 |
| 20260506034103 | 13 | 121 | 6.4 | 12.9 | 0.00 | 0.13 | 0.00 | 90 | 1009.5 |
| 20260506034003 | 13 | 122 | 6.4 | 12.9 | 0.00 | 0.13 | 0.00 | 90 | 1009.5 |
| 20260506033903 | 13 | 123 | 4.8 | 12.9 | 0.00 | 0.13 | 0.00 | 90 | 1009.5 |
| 20260506033803 | 13 | 123 | 4.8 | 12.9 | 0.00 | 0.13 | 0.00 | 90 | 1009.5 |
| 20260506033703 | 13 | 124 | 4.8 | 11.3 | 0.00 | 0.13 | 0.00 | 90 | 1009.6 |
| 20260506033603 | 13 | 124 | 4.8 | 11.3 | 0.00 | 0.13 | 0.00 | 90 | 1009.5 |
| 20260506033504 | 13 | 124 | 3.2 | 11.3 | 0.00 | 0.13 | 0.00 | 90 | 1009.5 |
| 20260506033403 | 13 | 123 | 3.2 | 11.3 | 0.00 | 0.13 | 0.00 | 90 | 1009.4 |
| 20260506033303 | 13 | 123 | 3.2 | 11.3 | 0.00 | 0.13 | 0.00 | 90 | 1009.4 |
| 20260506033203 | 13 | 122 | 3.2 | 9.7 | 0.00 | 0.13 | 0.00 | 90 | 1009.4 |
| 20260506033103 | 13 | 120 | 3.2 | 6.4 | 0.00 | 0.13 | 0.00 | 90 | 1009.4 |
| 20260506033004 | 13 | 119 | 3.2 | 6.4 | 0.00 | 0.13 | 0.00 | 90 | 1009.4 |
| 20260506032903 | 13 | 115 | 3.2 | 6.4 | 0.00 | 0.13 | 0.00 | 90 | 1009.4 |
| 20260506032803 | 13 | 113 | 3.2 | 6.4 | 0.00 | 0.13 | 0.00 | 90 | 1009.4 |
| 20260506032703 | 13 | 106 | 3.2 | 8.0 | 0.00 | 0.13 | 0.00 | 90 | 1009.4 |
| 20260506032603 | 13 | 104 | 3.2 | 8.0 | 0.00 | 0.13 | 0.00 | 90 | 1009.3 |
| 20260506032503 | 13 | 104 | 3.2 | 8.0 | 0.00 | 0.13 | 0.00 | 90 | 1009.3 |
| 20260506032403 | 13 | 102 | 3.2 | 8.0 | 0.00 | 0.13 | 0.00 | 90 | 1009.4 |
| 20260506032305 | 13 | 100 | 3.2 | 8.0 | 0.00 | 0.13 | 0.00 | 90 | 1009.4 |
| 20260506032203 | 13 | 99 | 3.2 | 8.0 | 0.00 | 0.13 | 0.00 | 90 | 1009.4 |
| 20260506032103 | 13 | 100 | 3.2 | 8.0 | 0.00 | 0.13 | 0.00 | 90 | 1009.4 |
| 20260506032003 | 13 | 101 | 3.2 | 8.0 | 0.00 | 0.13 | 0.00 | 90 | 1009.4 |
| 20260506031903 | 13 | 98 | 3.2 | 8.0 | 0.00 | 0.13 | 0.00 | 90 | 1009.4 |
| 20260506031803 | 13 | 98 | 3.2 | 8.0 | 0.00 | 0.13 | 0.00 | 90 | 1009.5 |
| 20260506031703 | 13 | 100 | 3.2 | 11.3 | 0.00 | 0.13 | 0.00 | 90 | 1009.5 |
| 20260506031603 | 13 | 97 | 3.2 | 11.3 | 0.00 | 0.13 | 0.00 | 90 | 1009.5 |
| 20260506031503 | 13 | 97 | 4.8 | 11.3 | 0.00 | 0.13 | 0.00 | 90 | 1009.4 |
| 20260506031403 | 13 | 96 | 4.8 | 11.3 | 0.00 | 0.13 | 0.00 | 90 | 1009.4 |
| 20260506031303 | 13 | 96 | 4.8 | 11.3 | 0.00 | 0.13 | 0.00 | 90 | 1009.3 |
| 20260506031203 | 13 | 93 | 4.8 | 11.3 | 0.00 | 0.13 | 0.00 | 90 | 1009.3 |
| 20260506031103 | 13 | 93 | 4.8 | 11.3 | 0.00 | 0.13 | 0.00 | 90 | 1009.3 |
| 20260506031003 | 13 | 91 | 4.8 | 12.9 | 0.00 | 0.13 | 0.00 | 90 | 1009.3 |
| 20260506030903 | 13 | 92 | 4.8 | 12.9 | 0.00 | 0.13 | 0.00 | 90 | 1009.3 |
| 20260506030803 | 13 | 90 | 4.8 | 12.9 | 0.00 | 0.13 | 0.00 | 90 | 1009.4 |
| 20260506030703 | 13 | 89 | 4.8 | 12.9 | 0.00 | 0.13 | 0.00 | 90 | 1009.4 |
| 20260506030603 | 13 | 89 | 6.4 | 12.9 | 0.00 | 0.13 | 0.00 | 90 | 1009.5 |
| 20260506030503 | 13 | 89 | 6.4 | 12.9 | 0.00 | 0.13 | 0.00 | 90 | 1009.6 |
| 20260506030403 | 13 | 89 | 6.4 | 12.9 | 0.00 | 0.13 | 0.00 | 90 | 1009.6 |
| 20260506030303 | 13 | 88 | 6.4 | 12.9 | 0.00 | 0.13 | 0.00 | 90 | 1009.5 |
| 20260506030203 | 13 | 90 | 6.4 | 12.9 | 0.00 | 0.13 | 0.00 | 90 | 1009.6 |
| 20260506030103 | 13 | 90 | 4.8 | 12.9 | 0.00 | 0.13 | 0.00 | 90 | 1009.6 |
| 20260506030004 | 13 | 91 | 4.8 | 12.9 | 0.00 | 0.13 | 0.00 | 90 | 1009.6 |
| 20260506025903 | 13 | 91 | 4.8 | 12.9 | 0.00 | 0.13 | 0.00 | 90 | 1009.6 |
| 20260506025803 | 13 | 93 | 4.8 | 12.9 | 0.00 | 0.13 | 0.00 | 90 | 1009.6 |
| 20260506025703 | 13 | 91 | 4.8 | 12.9 | 0.00 | 0.13 | 0.00 | 90 | 1009.7 |
| 20260506025603 | 13 | 92 | 4.8 | 12.9 | 0.00 | 0.13 | 0.00 | 90 | 1009.7 |
| 20260506025503 | 13 | 91 | 3.2 | 11.3 | 0.00 | 0.13 | 0.00 | 90 | 1009.8 |
| 20260506025403 | 13 | 91 | 4.8 | 11.3 | 0.00 | 0.13 | 0.00 | 90 | 1009.8 |
| 20260506025305 | 13 | 90 | 4.8 | 11.3 | 0.00 | 0.13 | 0.00 | 90 | 1009.9 |
| 20260506025203 | 13 | 89 | 4.8 | 11.3 | 0.00 | 0.13 | 0.00 | 90 | 1009.9 |
| 20260506025103 | 13 | 91 | 4.8 | 11.3 | 0.00 | 0.13 | 0.00 | 90 | 1009.9 |
| 20260506025003 | 13 | 95 | 4.8 | 11.3 | 0.00 | 0.13 | 0.00 | 90 | 1009.8 |
| 20260506024903 | 13 | 97 | 4.8 | 11.3 | 0.00 | 0.13 | 0.00 | 90 | 1009.8 |
| 20260506024803 | 13 | 99 | 4.8 | 11.3 | 0.00 | 0.13 | 0.00 | 90 | 1009.8 |
| 20260506024703 | 13 | 105 | 4.8 | 11.3 | 0.00 | 0.13 | 0.00 | 90 | 1009.9 |
| 20260506024603 | 13 | 108 | 4.8 | 11.3 | 0.00 | 0.13 | 0.00 | 90 | 1009.9 |
| 20260506024503 | 13 | 114 | 4.8 | 11.3 | 0.00 | 0.13 | 0.00 | 90 | 1010.0 |
| 20260506024403 | 13 | 121 | 4.8 | 9.7 | 0.00 | 0.13 | 0.00 | 90 | 1010.2 |
| 20260506024303 | 13 | 125 | 4.8 | 11.3 | 0.00 | 0.13 | 0.00 | 90 | 1010.2 |
| 20260506024203 | 13 | 127 | 4.8 | 11.3 | 0.00 | 0.13 | 0.00 | 90 | 1010.3 |
| 20260506024103 | 13 | 127 | 4.8 | 11.3 | 0.00 | 0.13 | 0.00 | 90 | 1010.3 |
| 20260506024003 | 13 | 127 | 4.8 | 11.3 | 0.00 | 0.13 | 0.00 | 90 | 1010.4 |
| 20260506023904 | 13 | 127 | 4.8 | 11.3 | 0.00 | 0.13 | 0.00 | 90 | 1010.4 |
| 20260506023803 | 13 | 127 | 4.8 | 12.9 | 0.00 | 0.13 | 0.00 | 90 | 1010.4 |
| 20260506023703 | 13 | 127 | 4.8 | 12.9 | 0.00 | 0.13 | 0.00 | 90 | 1010.5 |
| 20260506023603 | 13 | 127 | 4.8 | 12.9 | 0.00 | 0.13 | 0.00 | 90 | 1010.5 |
| 20260506023503 | 13 | 126 | 6.4 | 12.9 | 0.00 | 0.13 | 0.00 | 90 | 1010.4 |
| 20260506023403 | 13 | 125 | 4.8 | 12.9 | 0.00 | 0.13 | 0.00 | 90 | 1010.4 |
| 20260506023303 | 13 | 125 | 4.8 | 12.9 | 0.00 | 0.13 | 0.00 | 90 | 1010.4 |
| 20260506023203 | 13 | 125 | 4.8 | 12.9 | 0.00 | 0.13 | 0.00 | 90 | 1010.4 |
| 20260506023103 | 13 | 124 | 4.8 | 12.9 | 0.00 | 0.13 | 0.00 | 90 | 1010.4 |
| 20260506023003 | 13 | 124 | 4.8 | 12.9 | 0.00 | 0.13 | 0.00 | 90 | 1010.4 |
| 20260506022903 | 13 | 124 | 4.8 | 12.9 | 0.00 | 0.13 | 0.00 | 90 | 1010.3 |
| 20260506022803 | 13 | 120 | 4.8 | 12.9 | 0.00 | 0.13 | 0.00 | 90 | 1010.3 |
| 20260506022703 | 13 | 115 | 4.8 | 12.9 | 0.00 | 0.13 | 0.00 | 90 | 1010.3 |
| 20260506022603 | 13 | 114 | 4.8 | 12.9 | 0.00 | 0.13 | 0.00 | 90 | 1010.4 |
| 20260506022503 | 13 | 113 | 4.8 | 12.9 | 0.00 | 0.13 | 0.00 | 90 | 1010.4 |
| 20260506022403 | 13 | 109 | 4.8 | 12.9 | 0.00 | 0.13 | 0.00 | 90 | 1010.5 |
| 20260506022305 | 13 | 109 | 4.8 | 12.9 | 0.00 | 0.13 | 0.00 | 90 | 1010.5 |
| 20260506022203 | 13 | 106 | 4.8 | 12.9 | 0.00 | 0.13 | 0.00 | 90 | 1010.5 |
| 20260506022103 | 13 | 105 | 4.8 | 11.3 | 0.00 | 0.13 | 0.00 | 90 | 1010.4 |
| 20260506022003 | 13 | 105 | 4.8 | 11.3 | 0.00 | 0.13 | 0.00 | 90 | 1010.4 |
| 20260506021903 | 13 | 107 | 4.8 | 11.3 | 0.00 | 0.13 | 0.00 | 90 | 1010.3 |
| 20260506021803 | 13 | 110 | 4.8 | 11.3 | 0.00 | 0.13 | 0.00 | 90 | 1010.3 |
| 20260506021703 | 13 | 116 | 3.2 | 9.7 | 0.00 | 0.13 | 0.00 | 90 | 1010.4 |
| 20260506021603 | 13 | 117 | 3.2 | 9.7 | 0.00 | 0.13 | 0.00 | 90 | 1010.4 |
| 20260506021503 | 13 | 118 | 3.2 | 9.7 | 0.00 | 0.13 | 0.00 | 90 | 1010.4 |
| 20260506021403 | 13 | 122 | 3.2 | 9.7 | 0.00 | 0.13 | 0.00 | 90 | 1010.5 |
| 20260506021303 | 13 | 122 | 4.8 | 11.3 | 0.00 | 0.13 | 0.00 | 90 | 1010.6 |
| 20260506021203 | 13 | 123 | 4.8 | 11.3 | 0.00 | 0.13 | 0.00 | 90 | 1010.6 |
| 20260506021103 | 13 | 121 | 4.8 | 11.3 | 0.00 | 0.13 | 0.00 | 90 | 1010.6 |
| 20260506021003 | 13 | 118 | 4.8 | 11.3 | 0.00 | 0.13 | 0.00 | 90 | 1010.6 |
| 20260506020903 | 13 | 118 | 3.2 | 11.3 | 0.00 | 0.13 | 0.00 | 90 | 1010.6 |
| 20260506020803 | 13 | 118 | 3.2 | 11.3 | 0.00 | 0.13 | 0.00 | 90 | 1010.5 |
| 20260506020703 | 13 | 117 | 3.2 | 11.3 | 0.00 | 0.13 | 0.00 | 90 | 1010.5 |
| 20260506020603 | 13 | 117 | 3.2 | 11.3 | 0.00 | 0.13 | 0.00 | 90 | 1010.5 |
| 20260506020503 | 13 | 115 | 3.2 | 11.3 | 0.00 | 0.13 | 0.00 | 90 | 1010.5 |
| 20260506020403 | 13 | 114 | 3.2 | 11.3 | 0.00 | 0.13 | 0.00 | 90 | 1010.5 |
| 20260506020303 | 13 | 112 | 3.2 | 8.0 | 0.00 | 0.13 | 0.00 | 90 | 1010.5 |
| 20260506020203 | 13 | 112 | 3.2 | 8.0 | 0.00 | 0.13 | 0.00 | 90 | 1010.5 |
| 20260506020103 | 13 | 115 | 3.2 | 8.0 | 0.00 | 0.13 | 0.00 | 90 | 1010.5 |
| 20260506020004 | 13 | 119 | 1.6 | 6.4 | 0.00 | 0.13 | 0.00 | 90 | 1010.5 |
| 20260506015903 | 13 | 119 | 3.2 | 6.4 | 0.00 | 0.13 | 0.00 | 90 | 1010.5 |
| 20260506015803 | 13 | 118 | 3.2 | 6.4 | 0.00 | 0.13 | 0.00 | 90 | 1010.6 |
| 20260506015703 | 13 | 120 | 3.2 | 4.8 | 0.00 | 0.13 | 0.00 | 90 | 1010.6 |
| 20260506015603 | 13 | 120 | 1.6 | 4.8 | 0.00 | 0.13 | 0.00 | 90 | 1010.5 |
| 20260506015503 | 13 | 123 | 1.6 | 4.8 | 0.00 | 0.13 | 0.00 | 90 | 1010.6 |
| 20260506015403 | 13 | 125 | 1.6 | 4.8 | 0.00 | 0.13 | 0.00 | 90 | 1010.6 |
| 20260506015305 | 13 | 125 | 1.6 | 4.8 | 0.00 | 0.13 | 0.00 | 90 | 1010.6 |
| 20260506015203 | 13 | 127 | 1.6 | 4.8 | 0.00 | 0.13 | 0.00 | 90 | 1010.6 |
| 20260506015103 | 13 | 127 | 1.6 | 4.8 | 0.00 | 0.13 | 0.00 | 90 | 1010.6 |
| 20260506015003 | 13 | 129 | 1.6 | 4.8 | 0.00 | 0.13 | 0.00 | 90 | 1010.6 |
| 20260506014903 | 13 | 134 | 1.6 | 4.8 | 0.00 | 0.13 | 0.00 | 90 | 1010.6 |
| 20260506014803 | 13 | 135 | 1.6 | 4.8 | 0.00 | 0.13 | 0.00 | 90 | 1010.6 |
| 20260506014703 | 13 | 136 | 1.6 | 4.8 | 0.00 | 0.13 | 0.00 | 90 | 1010.6 |
| 20260506014603 | 13 | 137 | 1.6 | 4.8 | 0.00 | 0.13 | 0.00 | 90 | 1010.7 |
| 20260506014503 | 13 | 135 | 1.6 | 4.8 | 0.00 | 0.13 | 0.00 | 90 | 1010.6 |
| 20260506014403 | 13 | 133 | 3.2 | 4.8 | 0.00 | 0.13 | 0.00 | 90 | 1010.6 |
| 20260506014303 | 13 | 132 | 3.2 | 4.8 | 0.00 | 0.13 | 0.00 | 90 | 1010.6 |
| 20260506014203 | 13 | 131 | 3.2 | 4.8 | 0.00 | 0.13 | 0.00 | 90 | 1010.6 |
| 20260506014103 | 13 | 131 | 3.2 | 4.8 | 0.00 | 0.13 | 0.00 | 90 | 1010.6 |
| 20260506014003 | 13 | 130 | 3.2 | 4.8 | 0.00 | 0.13 | 0.00 | 90 | 1010.7 |
| 20260506013903 | 13 | 125 | 3.2 | 4.8 | 0.00 | 0.13 | 0.00 | 90 | 1010.7 |
| 20260506013803 | 13 | 124 | 3.2 | 4.8 | 0.00 | 0.13 | 0.00 | 90 | 1010.6 |
| 20260506013703 | 13 | 123 | 1.6 | 4.8 | 0.00 | 0.13 | 0.00 | 90 | 1010.5 |
| 20260506013603 | 13 | 120 | 1.6 | 4.8 | 0.00 | 0.13 | 0.00 | 90 | 1010.5 |
| 20260506013503 | 13 | 123 | 1.6 | 4.8 | 0.00 | 0.13 | 0.00 | 90 | 1010.5 |
| 20260506013403 | 13 | 126 | 1.6 | 4.8 | 0.00 | 0.13 | 0.00 | 90 | 1010.5 |
| 20260506013303 | 13 | 128 | 1.6 | 4.8 | 0.00 | 0.13 | 0.00 | 90 | 1010.5 |
| 20260506013203 | 13 | 131 | 1.6 | 4.8 | 0.00 | 0.13 | 0.00 | 90 | 1010.5 |
| 20260506013103 | 13 | 132 | 1.6 | 4.8 | 0.00 | 0.13 | 0.00 | 90 | 1010.5 |
| 20260506013003 | 13 | 131 | 1.6 | 4.8 | 0.00 | 0.13 | 0.00 | 90 | 1010.5 |
| 20260506012904 | 13 | 135 | 1.6 | 3.2 | 0.00 | 0.13 | 0.00 | 90 | 1010.5 |
| 20260506012803 | 13 | 134 | 1.6 | 3.2 | 0.00 | 0.13 | 0.00 | 90 | 1010.5 |
| 20260506012703 | 13 | 133 | 1.6 | 3.2 | 0.00 | 0.13 | 0.00 | 90 | 1010.6 |
| 20260506012603 | 13 | 132 | 1.6 | 3.2 | 0.00 | 0.13 | 0.00 | 90 | 1010.6 |
| 20260506012503 | 13 | 130 | 1.6 | 3.2 | 0.00 | 0.13 | 0.00 | 90 | 1010.6 |
| 20260506012403 | 13 | 126 | 0.0 | 3.2 | 0.00 | 0.13 | 0.00 | 90 | 1010.6 |
| 20260506012307 | 13 | 120 | 0.0 | 3.2 | 0.00 | 0.13 | 0.00 | 90 | 1010.6 |
| 20260506012204 | 13 | 121 | 1.6 | 3.2 | 0.00 | 0.13 | 0.00 | 90 | 1010.6 |
| 20260506012103 | 13 | 120 | 0.0 | 3.2 | 0.00 | 0.13 | 0.00 | 90 | 1010.6 |
| 20260506012003 | 13 | 130 | 0.0 | 3.2 | 0.00 | 0.13 | 0.00 | 90 | 1010.7 |
| 20260506011903 | 13 | 125 | 1.6 | 3.2 | 0.00 | 0.13 | 0.00 | 90 | 1010.6 |
| 20260506011803 | 13 | 120 | 1.6 | 3.2 | 0.00 | 0.13 | 0.00 | 90 | 1010.6 |
| 20260506011703 | 13 | 118 | 1.6 | 3.2 | 0.00 | 0.13 | 0.00 | 90 | 1010.7 |
| 20260506011603 | 13 | 118 | 1.6 | 3.2 | 0.00 | 0.13 | 0.00 | 90 | 1010.7 |
| 20260506011503 | 13 | 115 | 1.6 | 3.2 | 0.00 | 0.13 | 0.00 | 90 | 1010.6 |
| 20260506011403 | 13 | 109 | 1.6 | 3.2 | 0.00 | 0.13 | 0.00 | 90 | 1010.7 |
| 20260506011303 | 13 | 107 | 1.6 | 3.2 | 0.00 | 0.13 | 0.00 | 90 | 1010.7 |
| 20260506011203 | 13 | 104 | 1.6 | 3.2 | 0.00 | 0.13 | 0.00 | 90 | 1010.7 |
| 20260506011103 | 13 | 102 | 1.6 | 3.2 | 0.00 | 0.13 | 0.00 | 90 | 1010.7 |
| 20260506011003 | 13 | 94 | 1.6 | 3.2 | 0.00 | 0.13 | 0.00 | 90 | 1010.6 |
| 20260506010903 | 13 | 93 | 1.6 | 3.2 | 0.00 | 0.13 | 0.00 | 90 | 1010.6 |
| 20260506010803 | 13 | 90 | 0.0 | 3.2 | 0.00 | 0.13 | 0.00 | 90 | 1010.6 |
| 20260506010703 | 13 | 88 | 0.0 | 3.2 | 0.00 | 0.13 | 0.00 | 90 | 1010.5 |
| 20260506010603 | 13 | 86 | 0.0 | 3.2 | 0.00 | 0.13 | 0.00 | 90 | 1010.5 |
| 20260506010503 | 13 | 86 | 0.0 | 3.2 | 0.00 | 0.13 | 0.00 | 90 | 1010.5 |
| 20260506010403 | 13 | 85 | 0.0 | 4.8 | 0.00 | 0.13 | 0.00 | 90 | 1010.5 |
| 20260506010303 | 13 | 89 | 0.0 | 4.8 | 0.00 | 0.13 | 0.00 | 90 | 1010.5 |
| 20260506010203 | 13 | 102 | 0.0 | 4.8 | 0.00 | 0.13 | 0.00 | 90 | 1010.5 |
| 20260506010103 | 13 | 108 | 1.6 | 6.4 | 0.00 | 0.13 | 0.00 | 90 | 1010.5 |
| 20260506010004 | 13 | 108 | 1.6 | 9.7 | 0.00 | 0.13 | 0.00 | 90 | 1010.5 |
| 20260506005903 | 13 | 110 | 1.6 | 9.7 | 0.00 | 0.13 | 0.00 | 90 | 1010.4 |
| 20260506005803 | 13 | 111 | 1.6 | 9.7 | 0.00 | 0.13 | 0.00 | 90 | 1010.4 |
| 20260506005703 | 13 | 111 | 1.6 | 9.7 | 0.00 | 0.13 | 0.00 | 90 | 1010.6 |
| 20260506005603 | 13 | 111 | 1.6 | 9.7 | 0.00 | 0.13 | 0.00 | 90 | 1010.6 |
| 20260506005503 | 13 | 107 | 1.6 | 9.7 | 0.00 | 0.13 | 0.00 | 90 | 1010.6 |
| 20260506005404 | 13 | 103 | 3.2 | 9.7 | 0.00 | 0.13 | 0.00 | 90 | 1010.6 |
| 20260506005305 | 13 | 101 | 3.2 | 9.7 | 0.00 | 0.13 | 0.00 | 90 | 1010.6 |
| 20260506005203 | 13 | 99 | 3.2 | 9.7 | 0.00 | 0.13 | 0.00 | 90 | 1010.6 |
| 20260506005103 | 13 | 95 | 3.2 | 9.7 | 0.00 | 0.13 | 0.00 | 90 | 1010.7 |
| 20260506005003 | 13 | 92 | 3.2 | 6.4 | 0.00 | 0.13 | 0.00 | 90 | 1010.7 |
| 20260506004903 | 13 | 89 | 3.2 | 8.0 | 0.00 | 0.13 | 0.00 | 90 | 1010.7 |
| 20260506004803 | 13 | 88 | 3.2 | 9.7 | 0.00 | 0.13 | 0.00 | 90 | 1010.6 |
| 20260506004703 | 13 | 89 | 3.2 | 9.7 | 0.00 | 0.13 | 0.00 | 90 | 1010.6 |
| 20260506004604 | 13 | 90 | 3.2 | 9.7 | 0.00 | 0.13 | 0.00 | 90 | 1010.7 |
| 20260506004504 | 13 | 91 | 4.8 | 9.7 | 0.00 | 0.13 | 0.00 | 90 | 1010.7 |
| 20260506004403 | 13 | 93 | 4.8 | 9.7 | 0.00 | 0.13 | 0.00 | 90 | 1010.7 |
| 20260506004304 | 13 | 93 | 4.8 | 9.7 | 0.00 | 0.13 | 0.00 | 90 | 1010.7 |
| 20260506004203 | 13 | 92 | 4.8 | 11.3 | 0.00 | 0.13 | 0.00 | 90 | 1010.7 |
| 20260506004103 | 13 | 92 | 4.8 | 11.3 | 0.00 | 0.13 | 0.00 | 90 | 1010.8 |
| 20260506004003 | 13 | 92 | 4.8 | 11.3 | 0.00 | 0.13 | 0.00 | 90 | 1010.8 |
| 20260506003903 | 13 | 92 | 4.8 | 11.3 | 0.00 | 0.13 | 0.00 | 90 | 1010.9 |
| 20260506003803 | 13 | 91 | 4.8 | 11.3 | 0.00 | 0.13 | 0.00 | 90 | 1011.0 |
| 20260506003703 | 13 | 89 | 4.8 | 11.3 | 0.00 | 0.13 | 0.00 | 90 | 1011.0 |
| 20260506003603 | 13 | 88 | 4.8 | 11.3 | 0.00 | 0.13 | 0.00 | 90 | 1011.0 |
| 20260506003503 | 13 | 90 | 4.8 | 11.3 | 0.00 | 0.13 | 0.00 | 90 | 1011.0 |
| 20260506003403 | 13 | 91 | 4.8 | 11.3 | 0.00 | 0.13 | 0.00 | 90 | 1011.0 |
| 20260506003303 | 13 | 90 | 3.2 | 11.3 | 0.00 | 0.13 | 0.00 | 90 | 1011.0 |
| 20260506003203 | 13 | 91 | 3.2 | 8.0 | 0.00 | 0.13 | 0.00 | 90 | 1011.0 |
| 20260506003103 | 13 | 92 | 3.2 | 8.0 | 0.00 | 0.13 | 0.00 | 90 | 1011.0 |
| 20260506003003 | 13 | 92 | 3.2 | 8.0 | 0.00 | 0.13 | 0.00 | 90 | 1011.1 |
| 20260506002903 | 13 | 93 | 3.2 | 6.4 | 0.00 | 0.13 | 0.00 | 90 | 1011.1 |
| 20260506002803 | 13 | 97 | 3.2 | 6.4 | 0.00 | 0.13 | 0.00 | 90 | 1011.1 |
| 20260506002703 | 13 | 99 | 3.2 | 6.4 | 0.00 | 0.13 | 0.00 | 90 | 1011.1 |
| 20260506002603 | 13 | 102 | 3.2 | 6.4 | 0.00 | 0.13 | 0.00 | 90 | 1011.2 |
| 20260506002503 | 13 | 101 | 1.6 | 6.4 | 0.00 | 0.13 | 0.00 | 90 | 1011.1 |
| 20260506002403 | 13 | 101 | 1.6 | 6.4 | 0.00 | 0.13 | 0.00 | 90 | 1011.1 |
| 20260506002305 | 13 | 109 | 3.2 | 6.4 | 0.00 | 0.13 | 0.00 | 90 | 1011.1 |
| 20260506002203 | 13 | 111 | 1.6 | 6.4 | 0.00 | 0.13 | 0.00 | 90 | 1011.1 |
| 20260506002103 | 13 | 110 | 1.6 | 6.4 | 0.00 | 0.13 | 0.00 | 90 | 1011.2 |
| 20260506002003 | 14 | 112 | 1.6 | 6.4 | 0.00 | 0.13 | 0.00 | 90 | 1011.2 |
| 20260506001903 | 13 | 115 | 1.6 | 6.4 | 0.00 | 0.13 | 0.00 | 90 | 1011.2 |
| 20260506001803 | 13 | 114 | 3.2 | 6.4 | 0.00 | 0.13 | 0.00 | 90 | 1011.2 |
| 20260506001703 | 14 | 118 | 1.6 | 6.4 | 0.00 | 0.13 | 0.00 | 90 | 1011.3 |
| 20260506001603 | 14 | 121 | 1.6 | 6.4 | 0.00 | 0.13 | 0.00 | 90 | 1011.3 |
| 20260506001503 | 14 | 121 | 1.6 | 6.4 | 0.00 | 0.13 | 0.00 | 90 | 1011.2 |
| 20260506001403 | 14 | 120 | 1.6 | 6.4 | 0.00 | 0.13 | 0.00 | 90 | 1011.2 |
| 20260506001303 | 14 | 117 | 1.6 | 6.4 | 0.00 | 0.13 | 0.00 | 90 | 1011.3 |
| 20260506001203 | 14 | 115 | 1.6 | 6.4 | 0.00 | 0.13 | 0.00 | 90 | 1011.3 |
| 20260506001103 | 14 | 116 | 1.6 | 6.4 | 0.00 | 0.13 | 0.00 | 90 | 1011.3 |
| 20260506001003 | 14 | 111 | 3.2 | 6.4 | 0.00 | 0.13 | 0.00 | 90 | 1011.2 |
| 20260506000903 | 14 | 108 | 3.2 | 6.4 | 0.00 | 0.13 | 0.00 | 90 | 1011.2 |
| 20260506000803 | 14 | 104 | 1.6 | 6.4 | 0.00 | 0.13 | 0.00 | 90 | 1011.3 |
| 20260506000704 | 14 | 102 | 3.2 | 6.4 | 0.00 | 0.13 | 0.00 | 90 | 1011.3 |
| 20260506000603 | 14 | 101 | 3.2 | 6.4 | 0.00 | 0.13 | 0.00 | 90 | 1011.3 |
| 20260506000503 | 14 | 100 | 3.2 | 6.4 | 0.00 | 0.13 | 0.00 | 90 | 1011.3 |
| 20260506000403 | 14 | 100 | 3.2 | 6.4 | 0.00 | 0.13 | 0.00 | 90 | 1011.3 |
| 20260506000303 | 14 | 97 | 3.2 | 6.4 | 0.00 | 0.13 | 0.00 | 90 | 1011.3 |
| 20260506000204 | 14 | 94 | 3.2 | 6.4 | 0.00 | 0.13 | 0.00 | 90 | 1011.3 |
| 20260506000004 | 14 | 93 | 3.2 | 6.4 | 0.00 | 0.13 | 0.00 | 90 | 1011.3 |
| 20260505235903 | 14 | 95 | 3.2 | 6.4 | 0.00 | 0.13 | 0.00 | 90 | 1011.4 |
| 20260505235803 | 14 | 96 | 3.2 | 6.4 | 0.00 | 0.13 | 0.00 | 90 | 1011.4 |
| 20260505235703 | 14 | 95 | 3.2 | 6.4 | 0.00 | 0.13 | 0.00 | 90 | 1011.4 |
| 20260505235603 | 14 | 92 | 3.2 | 6.4 | 0.00 | 0.13 | 0.00 | 90 | 1011.4 |
| 20260505235503 | 14 | 91 | 1.6 | 6.4 | 0.00 | 0.13 | 0.00 | 90 | 1011.4 |
| 20260505235403 | 14 | 88 | 1.6 | 6.4 | 0.00 | 0.13 | 0.00 | 90 | 1011.4 |
| 20260505235305 | 14 | 88 | 1.6 | 6.4 | 0.00 | 0.13 | 0.00 | 90 | 1011.4 |
| 20260505235203 | 14 | 90 | 1.6 | 6.4 | 0.00 | 0.13 | 0.00 | 90 | 1011.3 |
| 20260505235103 | 14 | 93 | 1.6 | 4.8 | 0.00 | 0.13 | 0.00 | 90 | 1011.3 |
| 20260505235003 | 14 | 96 | 1.6 | 4.8 | 0.00 | 0.13 | 0.00 | 90 | 1011.4 |
| 20260505234903 | 14 | 93 | 1.6 | 4.8 | 0.00 | 0.13 | 0.00 | 90 | 1011.4 |
| 20260505234803 | 14 | 95 | 1.6 | 4.8 | 0.00 | 0.13 | 0.00 | 90 | 1011.4 |
| 20260505234703 | 14 | 99 | 1.6 | 4.8 | 0.00 | 0.13 | 0.00 | 90 | 1011.4 |
| 20260505234603 | 14 | 103 | 1.6 | 4.8 | 0.00 | 0.13 | 0.00 | 90 | 1011.4 |
| 20260505234503 | 14 | 107 | 1.6 | 4.8 | 0.00 | 0.13 | 0.00 | 90 | 1011.4 |
| 20260505234403 | 14 | 112 | 1.6 | 4.8 | 0.00 | 0.13 | 0.00 | 90 | 1011.5 |
| 20260505234303 | 14 | 113 | 1.6 | 4.8 | 0.00 | 0.13 | 0.00 | 90 | 1011.5 |
| 20260505234203 | 14 | 108 | 1.6 | 4.8 | 0.00 | 0.13 | 0.00 | 90 | 1011.5 |
| 20260505234103 | 14 | 101 | 1.6 | 4.8 | 0.00 | 0.13 | 0.00 | 90 | 1011.5 |
| 20260505234003 | 14 | 91 | 1.6 | 6.4 | 0.00 | 0.13 | 0.00 | 90 | 1011.5 |
| 20260505233903 | 14 | 83 | 1.6 | 6.4 | 0.00 | 0.13 | 0.00 | 90 | 1011.5 |
| 20260505233803 | 14 | 82 | 1.6 | 6.4 | 0.00 | 0.13 | 0.00 | 90 | 1011.5 |
| 20260505233703 | 14 | 81 | 1.6 | 6.4 | 0.00 | 0.13 | 0.00 | 90 | 1011.6 |
| 20260505233603 | 14 | 79 | 1.6 | 6.4 | 0.00 | 0.13 | 0.00 | 90 | 1011.6 |
| 20260505233503 | 14 | 75 | 1.6 | 6.4 | 0.00 | 0.13 | 0.00 | 90 | 1011.6 |
| 20260505233403 | 14 | 73 | 1.6 | 6.4 | 0.00 | 0.13 | 0.00 | 90 | 1011.5 |
| 20260505233303 | 14 | 70 | 1.6 | 6.4 | 0.00 | 0.13 | 0.00 | 90 | 1011.5 |
| 20260505233203 | 14 | 68 | 1.6 | 6.4 | 0.00 | 0.13 | 0.00 | 90 | 1011.5 |
| 20260505233103 | 14 | 69 | 1.6 | 6.4 | 0.00 | 0.13 | 0.00 | 90 | 1011.6 |
| 20260505233003 | 14 | 74 | 1.6 | 6.4 | 0.00 | 0.13 | 0.00 | 90 | 1011.6 |
| 20260505232903 | 14 | 83 | 0.0 | 4.8 | 0.00 | 0.13 | 0.00 | 90 | 1011.6 |
| 20260505232803 | 14 | 83 | 0.0 | 4.8 | 0.00 | 0.13 | 0.00 | 90 | 1011.7 |
| 20260505232703 | 14 | 84 | 0.0 | 4.8 | 0.00 | 0.13 | 0.00 | 90 | 1011.7 |
| 20260505232603 | 14 | 84 | 0.0 | 4.8 | 0.00 | 0.13 | 0.00 | 90 | 1011.6 |
| 20260505232504 | 14 | 84 | 0.0 | 4.8 | 0.00 | 0.13 | 0.00 | 90 | 1011.6 |
| 20260505232403 | 14 | 84 | 0.0 | 4.8 | 0.00 | 0.13 | 0.00 | 90 | 1011.8 |
| 20260505232305 | 14 | 84 | 0.0 | 4.8 | 0.00 | 0.13 | 0.00 | 90 | 1011.7 |
| 20260505232203 | 14 | 86 | 0.0 | 4.8 | 0.00 | 0.13 | 0.00 | 90 | 1011.7 |
| 20260505232103 | 14 | 86 | 0.0 | 3.2 | 0.00 | 0.13 | 0.00 | 90 | 1011.7 |
| 20260505232003 | 14 | 88 | 0.0 | 3.2 | 0.00 | 0.13 | 0.00 | 90 | 1011.7 |
| 20260505231903 | 14 | 99 | 0.0 | 3.2 | 0.00 | 0.13 | 0.00 | 90 | 1011.7 |
| 20260505231803 | 14 | 108 | 0.0 | 3.2 | 0.00 | 0.13 | 0.00 | 90 | 1011.8 |
| 20260505231703 | 14 | 112 | 0.0 | 3.2 | 0.00 | 0.13 | 0.00 | 90 | 1011.8 |
| 20260505231603 | 14 | 112 | 0.0 | 3.2 | 0.00 | 0.13 | 0.00 | 90 | 1011.8 |
| 20260505231503 | 14 | 114 | 0.0 | 3.2 | 0.00 | 0.13 | 0.00 | 90 | 1011.8 |
| 20260505231403 | 14 | 128 | 0.0 | 4.8 | 0.00 | 0.13 | 0.00 | 90 | 1011.8 |
| 20260505231303 | 14 | 122 | 0.0 | 4.8 | 0.00 | 0.13 | 0.00 | 90 | 1011.8 |
| 20260505231203 | 14 | 109 | 1.6 | 6.4 | 0.00 | 0.13 | 0.00 | 90 | 1011.8 |
| 20260505231103 | 14 | 100 | 1.6 | 6.4 | 0.00 | 0.13 | 0.00 | 90 | 1011.8 |
| 20260505231003 | 14 | 93 | 1.6 | 6.4 | 0.00 | 0.13 | 0.00 | 90 | 1011.7 |
| 20260505230903 | 14 | 90 | 1.6 | 6.4 | 0.00 | 0.13 | 0.00 | 90 | 1011.7 |
| 20260505230803 | 14 | 87 | 1.6 | 6.4 | 0.00 | 0.13 | 0.00 | 90 | 1011.7 |
| 20260505230703 | 14 | 82 | 1.6 | 6.4 | 0.00 | 0.13 | 0.00 | 90 | 1011.7 |
| 20260505230603 | 14 | 80 | 3.2 | 6.4 | 0.00 | 0.13 | 0.00 | 90 | 1011.7 |
| 20260505230503 | 14 | 79 | 3.2 | 6.4 | 0.00 | 0.13 | 0.00 | 90 | 1011.7 |
| 20260505230403 | 14 | 73 | 3.2 | 6.4 | 0.00 | 0.13 | 0.00 | 90 | 1011.7 |
| 20260505230303 | 14 | 72 | 3.2 | 6.4 | 0.00 | 0.13 | 0.00 | 90 | 1011.7 |
| 20260505230203 | 14 | 71 | 1.6 | 6.4 | 0.00 | 0.13 | 0.00 | 90 | 1011.7 |
| 20260505230004 | 14 | 72 | 1.6 | 4.8 | 0.00 | 0.13 | 0.00 | 90 | 1011.7 |
| 20260505225903 | 14 | 73 | 1.6 | 4.8 | 0.00 | 0.13 | 0.00 | 90 | 1011.7 |
| 20260505225803 | 14 | 73 | 1.6 | 4.8 | 0.00 | 0.13 | 0.00 | 90 | 1011.7 |
| 20260505225703 | 14 | 77 | 1.6 | 4.8 | 0.00 | 0.13 | 0.00 | 90 | 1011.7 |
| 20260505225603 | 14 | 80 | 1.6 | 4.8 | 0.00 | 0.13 | 0.00 | 90 | 1011.7 |
| 20260505225503 | 14 | 81 | 1.6 | 4.8 | 0.00 | 0.13 | 0.00 | 90 | 1011.7 |
| 20260505225403 | 14 | 81 | 1.6 | 4.8 | 0.00 | 0.13 | 0.00 | 90 | 1011.7 |
| 20260505225305 | 14 | 81 | 1.6 | 4.8 | 0.00 | 0.13 | 0.00 | 90 | 1011.7 |
| 20260505225203 | 14 | 82 | 1.6 | 4.8 | 0.00 | 0.13 | 0.00 | 90 | 1011.7 |
| 20260505225103 | 14 | 83 | 0.0 | 4.8 | 0.00 | 0.13 | 0.00 | 90 | 1011.7 |
| 20260505225003 | 14 | 81 | 0.0 | 4.8 | 0.00 | 0.13 | 0.00 | 90 | 1011.8 |
| 20260505224903 | 14 | 63 | 0.0 | 1.6 | 0.00 | 0.13 | 0.00 | 90 | 1011.8 |
| 20260505224803 | 14 | 0 | 0.0 | 0.0 | 0.00 | 0.13 | 0.00 | 90 | 1011.8 |
| 20260505224703 | 14 | 0 | 0.0 | 0.0 | 0.00 | 0.13 | 0.00 | 90 | 1011.9 |
| 20260505224603 | 14 | 0 | 0.0 | 0.0 | 0.00 | 0.13 | 0.00 | 90 | 1011.9 |
| 20260505224503 | 14 | 0 | 0.0 | 0.0 | 0.00 | 0.13 | 0.00 | 90 | 1011.8 |
| 20260505224403 | 14 | 0 | 0.0 | 0.0 | 0.00 | 0.13 | 0.00 | 90 | 1011.8 |
| 20260505224303 | 14 | 0 | 0.0 | 0.0 | 0.00 | 0.13 | 0.00 | 90 | 1011.8 |
| 20260505224203 | 14 | 0 | 0.0 | 0.0 | 0.00 | 0.13 | 0.00 | 90 | 1011.8 |
| 20260505224103 | 14 | 0 | 0.0 | 0.0 | 0.00 | 0.13 | 0.00 | 90 | 1011.8 |
| 20260505224003 | 14 | 0 | 0.0 | 0.0 | 0.00 | 0.13 | 0.00 | 90 | 1011.8 |
| 20260505223903 | 14 | 0 | 0.0 | 0.0 | 0.00 | 0.13 | 0.00 | 90 | 1011.8 |
| 20260505223803 | 14 | 0 | 0.0 | 0.0 | 0.00 | 0.13 | 0.00 | 90 | 1011.8 |
| 20260505223703 | 14 | 0 | 0.0 | 0.0 | 0.00 | 0.13 | 0.00 | 90 | 1011.9 |
| 20260505223603 | 14 | 0 | 0.0 | 0.0 | 0.00 | 0.13 | 0.00 | 90 | 1011.9 |
| 20260505223503 | 14 | 0 | 0.0 | 0.0 | 0.00 | 0.13 | 0.00 | 90 | 1011.8 |
| 20260505223403 | 14 | 0 | 0.0 | 0.0 | 0.00 | 0.13 | 0.00 | 90 | 1011.9 |
| 20260505223304 | 14 | 0 | 0.0 | 0.0 | 0.00 | 0.13 | 0.00 | 90 | 1011.9 |
| 20260505223203 | 14 | 0 | 0.0 | 0.0 | 0.00 | 0.13 | 0.00 | 90 | 1011.9 |
| 20260505223103 | 14 | 0 | 0.0 | 0.0 | 0.00 | 0.13 | 0.00 | 90 | 1011.9 |
| 20260505223003 | 14 | 0 | 0.0 | 0.0 | 0.00 | 0.13 | 0.00 | 90 | 1011.8 |
| 20260505222903 | 14 | 0 | 0.0 | 0.0 | 0.00 | 0.13 | 0.00 | 90 | 1011.8 |
| 20260505222803 | 14 | 0 | 0.0 | 0.0 | 0.00 | 0.13 | 0.00 | 90 | 1011.8 |
| 20260505222703 | 14 | 0 | 0.0 | 0.0 | 0.00 | 0.13 | 0.00 | 90 | 1011.8 |
| 20260505222603 | 14 | 0 | 0.0 | 0.0 | 0.00 | 0.13 | 0.00 | 90 | 1011.8 |
| 20260505222503 | 14 | 0 | 0.0 | 0.0 | 0.00 | 0.13 | 0.00 | 90 | 1011.9 |
| 20260505222403 | 14 | 0 | 0.0 | 0.0 | 0.00 | 0.13 | 0.00 | 90 | 1011.9 |
| 20260505222305 | 14 | 0 | 0.0 | 0.0 | 0.00 | 0.13 | 0.00 | 90 | 1011.9 |
| 20260505222203 | 14 | 0 | 0.0 | 0.0 | 0.00 | 0.13 | 0.00 | 90 | 1012.0 |
| 20260505222103 | 14 | 0 | 0.0 | 0.0 | 0.00 | 0.13 | 0.00 | 90 | 1012.0 |
| 20260505222003 | 14 | 0 | 0.0 | 0.0 | 0.00 | 0.13 | 0.00 | 90 | 1012.0 |
| 20260505221903 | 14 | 0 | 0.0 | 0.0 | 0.00 | 0.13 | 0.00 | 90 | 1012.0 |
| 20260505221803 | 14 | 0 | 0.0 | 0.0 | 0.00 | 0.13 | 0.00 | 90 | 1012.0 |
| 20260505221703 | 14 | 0 | 0.0 | 0.0 | 0.00 | 0.13 | 0.00 | 90 | 1012.0 |
| 20260505221603 | 14 | 0 | 0.0 | 0.0 | 0.00 | 0.13 | 0.00 | 90 | 1012.0 |
| 20260505221503 | 14 | 0 | 0.0 | 0.0 | 0.00 | 0.13 | 0.00 | 90 | 1012.0 |
| 20260505221403 | 14 | 0 | 0.0 | 0.0 | 0.00 | 0.13 | 0.00 | 90 | 1012.0 |
| 20260505221303 | 14 | 0 | 0.0 | 0.0 | 0.00 | 0.13 | 0.00 | 90 | 1012.0 |
| 20260505221203 | 14 | 0 | 0.0 | 0.0 | 0.00 | 0.13 | 0.00 | 90 | 1012.0 |
| 20260505221103 | 14 | 85 | 0.0 | 1.6 | 0.00 | 0.13 | 0.00 | 90 | 1012.0 |
| 20260505221003 | 14 | 85 | 0.0 | 1.6 | 0.00 | 0.13 | 0.00 | 90 | 1012.0 |
| 20260505220903 | 14 | 84 | 0.0 | 1.6 | 0.00 | 0.13 | 0.00 | 90 | 1012.0 |
| 20260505220803 | 14 | 84 | 0.0 | 1.6 | 0.00 | 0.13 | 0.00 | 90 | 1012.0 |
| 20260505220703 | 14 | 84 | 0.0 | 1.6 | 0.00 | 0.13 | 0.00 | 90 | 1012.0 |
| 20260505220603 | 14 | 85 | 0.0 | 1.6 | 0.00 | 0.13 | 0.00 | 90 | 1012.1 |
| 20260505220503 | 14 | 84 | 0.0 | 3.2 | 0.00 | 0.13 | 0.00 | 90 | 1012.1 |
| 20260505220403 | 14 | 84 | 0.0 | 3.2 | 0.00 | 0.13 | 0.00 | 90 | 1012.1 |
| 20260505220303 | 14 | 84 | 0.0 | 3.2 | 0.00 | 0.13 | 0.00 | 90 | 1012.1 |
| 20260505220203 | 14 | 85 | 0.0 | 3.2 | 0.00 | 0.13 | 0.00 | 90 | 1012.1 |
| 20260505220103 | 14 | 85 | 0.0 | 3.2 | 0.00 | 0.13 | 0.00 | 90 | 1012.1 |
| 20260505220034 | 14 | 90 | 0.0 | 3.2 | 0.00 | 0.13 | 0.00 | 90 | 1012.1 |
| 20260505215903 | 14 | 88 | 0.0 | 3.2 | 0.00 | 0.13 | 0.13 | 90 | 1012.1 |
| 20260505215803 | 14 | 75 | 0.0 | 3.2 | 0.00 | 0.13 | 0.13 | 90 | 1012.1 |
| 20260505215703 | 14 | 63 | 0.0 | 3.2 | 0.00 | 0.13 | 0.13 | 90 | 1012.2 |
| 20260505215603 | 14 | 59 | 1.6 | 3.2 | 0.00 | 0.13 | 0.13 | 90 | 1012.2 |
| 20260505215503 | 14 | 56 | 0.0 | 3.2 | 0.00 | 0.13 | 0.13 | 90 | 1012.2 |
| 20260505215404 | 14 | 58 | 1.6 | 3.2 | 0.00 | 0.13 | 0.13 | 90 | 1012.2 |
| 20260505215305 | 14 | 58 | 1.6 | 3.2 | 0.00 | 0.13 | 0.13 | 90 | 1012.1 |
| 20260505215203 | 14 | 56 | 1.6 | 3.2 | 0.00 | 0.13 | 0.13 | 90 | 1012.1 |
| 20260505215103 | 14 | 51 | 1.6 | 3.2 | 0.00 | 0.13 | 0.13 | 90 | 1012.1 |
| 20260505215003 | 14 | 45 | 0.0 | 3.2 | 0.00 | 0.13 | 0.13 | 90 | 1012.1 |
| 20260505214903 | 14 | 49 | 1.6 | 4.8 | 0.00 | 0.13 | 0.13 | 90 | 1012.1 |
| 20260505214803 | 14 | 55 | 1.6 | 4.8 | 0.00 | 0.13 | 0.13 | 90 | 1012.1 |
| 20260505214703 | 14 | 61 | 1.6 | 4.8 | 0.00 | 0.13 | 0.13 | 90 | 1012.0 |
| 20260505214603 | 14 | 59 | 1.6 | 4.8 | 0.00 | 0.13 | 0.13 | 90 | 1012.0 |
| 20260505214503 | 14 | 58 | 1.6 | 4.8 | 0.00 | 0.13 | 0.13 | 90 | 1012.1 |
| 20260505214403 | 14 | 56 | 1.6 | 4.8 | 0.00 | 0.13 | 0.13 | 90 | 1012.1 |
| 20260505214303 | 14 | 56 | 1.6 | 4.8 | 0.00 | 0.13 | 0.13 | 90 | 1012.1 |
| 20260505214203 | 14 | 56 | 1.6 | 4.8 | 0.00 | 0.13 | 0.13 | 90 | 1012.1 |
| 20260505214103 | 14 | 54 | 1.6 | 4.8 | 0.00 | 0.13 | 0.13 | 90 | 1012.1 |
| 20260505214003 | 14 | 54 | 1.6 | 4.8 | 0.00 | 0.13 | 0.13 | 90 | 1012.1 |
| 20260505213903 | 14 | 52 | 1.6 | 3.2 | 0.00 | 0.13 | 0.13 | 90 | 1012.1 |
| 20260505213803 | 14 | 49 | 1.6 | 3.2 | 0.00 | 0.13 | 0.13 | 90 | 1012.1 |
| 20260505213703 | 14 | 45 | 1.6 | 3.2 | 0.00 | 0.13 | 0.13 | 90 | 1012.1 |
| 20260505213603 | 14 | 49 | 0.0 | 3.2 | 0.00 | 0.13 | 0.13 | 90 | 1012.3 |
| 20260505213503 | 14 | 50 | 0.0 | 3.2 | 0.00 | 0.13 | 0.13 | 90 | 1012.3 |
| 20260505213403 | 14 | 44 | 0.0 | 3.2 | 0.00 | 0.13 | 0.13 | 90 | 1012.3 |
| 20260505213303 | 14 | 37 | 0.0 | 3.2 | 0.00 | 0.13 | 0.13 | 90 | 1012.3 |
| 20260505213203 | 14 | 27 | 0.0 | 3.2 | 0.00 | 0.13 | 0.13 | 90 | 1012.4 |
| 20260505213103 | 14 | 13 | 0.0 | 3.2 | 0.00 | 0.13 | 0.13 | 90 | 1012.4 |
| 20260505213003 | 14 | 11 | 0.0 | 3.2 | 0.00 | 0.13 | 0.13 | 90 | 1012.4 |
| 20260505212903 | 14 | 10 | 0.0 | 3.2 | 0.00 | 0.13 | 0.13 | 90 | 1012.3 |
| 20260505212803 | 14 | 10 | 0.0 | 3.2 | 0.00 | 0.13 | 0.13 | 90 | 1012.3 |
| 20260505212703 | 14 | 7 | 1.6 | 3.2 | 0.00 | 0.13 | 0.13 | 90 | 1012.3 |
| 20260505212603 | 14 | 5 | 1.6 | 3.2 | 0.00 | 0.13 | 0.13 | 90 | 1012.3 |
| 20260505212503 | 14 | 4 | 1.6 | 3.2 | 0.03 | 0.13 | 0.13 | 90 | 1012.3 |
| 20260505212403 | 14 | 3 | 1.6 | 3.2 | 0.03 | 0.13 | 0.13 | 90 | 1012.4 |
| 20260505212305 | 14 | 358 | 1.6 | 3.2 | 0.03 | 0.13 | 0.13 | 90 | 1012.4 |
| 20260505212203 | 14 | 356 | 0.0 | 3.2 | 0.03 | 0.13 | 0.13 | 90 | 1012.3 |
| 20260505212103 | 14 | 357 | 0.0 | 3.2 | 0.03 | 0.13 | 0.13 | 90 | 1012.3 |
| 20260505212003 | 14 | 357 | 0.0 | 3.2 | 0.03 | 0.13 | 0.13 | 90 | 1012.3 |
| 20260505211903 | 14 | 2 | 0.0 | 3.2 | 0.03 | 0.13 | 0.13 | 90 | 1012.4 |
| 20260505211803 | 14 | 3 | 0.0 | 3.2 | 0.03 | 0.13 | 0.13 | 90 | 1012.4 |
| 20260505211703 | 14 | 7 | 0.0 | 3.2 | 0.03 | 0.13 | 0.13 | 90 | 1012.4 |
| 20260505211603 | 14 | 35 | 0.0 | 3.2 | 0.03 | 0.13 | 0.13 | 90 | 1012.4 |
| 20260505211503 | 14 | 72 | 0.0 | 1.6 | 0.03 | 0.13 | 0.13 | 90 | 1012.4 |
| 20260505211403 | 14 | 72 | 0.0 | 3.2 | 0.03 | 0.13 | 0.13 | 90 | 1012.4 |
| 20260505211303 | 14 | 72 | 0.0 | 3.2 | 0.03 | 0.13 | 0.13 | 90 | 1012.4 |
| 20260505211203 | 14 | 72 | 0.0 | 3.2 | 0.03 | 0.13 | 0.13 | 89 | 1012.4 |
| 20260505211103 | 14 | 72 | 0.0 | 3.2 | 0.03 | 0.13 | 0.13 | 90 | 1012.4 |
| 20260505211003 | 14 | 72 | 0.0 | 3.2 | 0.03 | 0.13 | 0.13 | 89 | 1012.4 |
| 20260505210903 | 14 | 72 | 0.0 | 3.2 | 0.03 | 0.13 | 0.13 | 89 | 1012.5 |
| 20260505210803 | 14 | 72 | 0.0 | 3.2 | 0.03 | 0.13 | 0.13 | 89 | 1012.4 |
| 20260505210703 | 14 | 72 | 0.0 | 3.2 | 0.03 | 0.13 | 0.13 | 89 | 1012.4 |
| 20260505210603 | 14 | 72 | 0.0 | 3.2 | 0.03 | 0.13 | 0.13 | 89 | 1012.5 |
| 20260505210504 | 14 | 72 | 0.0 | 3.2 | 0.03 | 0.13 | 0.13 | 89 | 1012.5 |
| 20260505210403 | 14 | 72 | 0.0 | 1.6 | 0.03 | 0.13 | 0.13 | 89 | 1012.5 |
| 20260505210303 | 14 | 72 | 0.0 | 1.6 | 0.03 | 0.13 | 0.13 | 89 | 1012.6 |
| 20260505210203 | 14 | 72 | 0.0 | 1.6 | 0.03 | 0.13 | 0.13 | 89 | 1012.6 |
| 20260505210103 | 14 | 70 | 0.0 | 3.2 | 0.03 | 0.13 | 0.13 | 89 | 1012.5 |
| 20260505210004 | 14 | 70 | 0.0 | 3.2 | 0.03 | 0.13 | 0.13 | 89 | 1012.5 |
| 20260505205903 | 14 | 66 | 0.0 | 3.2 | 0.03 | 0.13 | 0.13 | 89 | 1012.5 |
| 20260505205803 | 14 | 68 | 0.0 | 4.8 | 0.03 | 0.13 | 0.13 | 89 | 1012.5 |
| 20260505205703 | 14 | 68 | 1.6 | 4.8 | 0.03 | 0.13 | 0.13 | 89 | 1012.5 |
| 20260505205603 | 14 | 64 | 1.6 | 4.8 | 0.03 | 0.13 | 0.13 | 89 | 1012.6 |
| 20260505205503 | 14 | 60 | 1.6 | 4.8 | 0.03 | 0.13 | 0.13 | 89 | 1012.5 |
| 20260505205403 | 14 | 58 | 1.6 | 4.8 | 0.03 | 0.13 | 0.13 | 89 | 1012.5 |
| 20260505205305 | 14 | 56 | 1.6 | 4.8 | 0.05 | 0.13 | 0.13 | 89 | 1012.6 |
| 20260505205203 | 14 | 54 | 1.6 | 4.8 | 0.05 | 0.13 | 0.13 | 89 | 1012.6 |
| 20260505205103 | 14 | 54 | 1.6 | 4.8 | 0.05 | 0.13 | 0.13 | 89 | 1012.6 |
| 20260505205003 | 14 | 54 | 1.6 | 4.8 | 0.05 | 0.13 | 0.13 | 89 | 1012.5 |
| 20260505204903 | 14 | 54 | 1.6 | 4.8 | 0.05 | 0.13 | 0.13 | 89 | 1012.5 |
| 20260505204803 | 14 | 51 | 1.6 | 4.8 | 0.05 | 0.13 | 0.13 | 89 | 1012.6 |
| 20260505204703 | 14 | 49 | 1.6 | 4.8 | 0.05 | 0.13 | 0.13 | 89 | 1012.5 |
| 20260505204603 | 14 | 50 | 1.6 | 4.8 | 0.05 | 0.13 | 0.13 | 89 | 1012.5 |
| 20260505204503 | 14 | 51 | 1.6 | 4.8 | 0.05 | 0.13 | 0.13 | 89 | 1012.5 |
| 20260505204403 | 14 | 54 | 1.6 | 4.8 | 0.05 | 0.13 | 0.13 | 89 | 1012.5 |
| 20260505204303 | 14 | 55 | 1.6 | 4.8 | 0.05 | 0.13 | 0.13 | 89 | 1012.5 |
| 20260505204203 | 14 | 59 | 1.6 | 4.8 | 0.05 | 0.13 | 0.13 | 89 | 1012.5 |
| 20260505204103 | 14 | 58 | 1.6 | 3.2 | 0.05 | 0.13 | 0.13 | 89 | 1012.5 |
| 20260505204003 | 14 | 59 | 1.6 | 3.2 | 0.05 | 0.13 | 0.13 | 89 | 1012.6 |
| 20260505203903 | 14 | 59 | 1.6 | 3.2 | 0.05 | 0.13 | 0.13 | 89 | 1012.6 |
| 20260505203803 | 14 | 60 | 1.6 | 3.2 | 0.05 | 0.13 | 0.13 | 89 | 1012.6 |
| 20260505203703 | 14 | 64 | 0.0 | 3.2 | 0.05 | 0.13 | 0.13 | 89 | 1012.5 |
| 20260505203604 | 14 | 67 | 0.0 | 3.2 | 0.05 | 0.13 | 0.13 | 89 | 1012.5 |
| 20260505203503 | 14 | 67 | 0.0 | 3.2 | 0.05 | 0.13 | 0.13 | 89 | 1012.6 |
| 20260505203403 | 14 | 67 | 0.0 | 3.2 | 0.05 | 0.13 | 0.13 | 89 | 1012.6 |
| 20260505203303 | 14 | 67 | 0.0 | 3.2 | 0.05 | 0.13 | 0.13 | 89 | 1012.6 |
| 20260505203203 | 14 | 67 | 0.0 | 3.2 | 0.05 | 0.13 | 0.13 | 89 | 1012.6 |
| 20260505203103 | 14 | 68 | 0.0 | 3.2 | 0.05 | 0.13 | 0.13 | 89 | 1012.6 |
| 20260505203003 | 14 | 69 | 0.0 | 3.2 | 0.05 | 0.13 | 0.13 | 89 | 1012.5 |
| 20260505202903 | 14 | 72 | 0.0 | 3.2 | 0.05 | 0.13 | 0.13 | 89 | 1012.6 |
| 20260505202803 | 14 | 73 | 0.0 | 3.2 | 0.05 | 0.13 | 0.13 | 89 | 1012.6 |
| 20260505202703 | 14 | 73 | 0.0 | 3.2 | 0.05 | 0.13 | 0.13 | 89 | 1012.6 |
| 20260505202603 | 14 | 73 | 0.0 | 3.2 | 0.05 | 0.13 | 0.13 | 89 | 1012.6 |
| 20260505202503 | 14 | 74 | 1.6 | 3.2 | 0.03 | 0.10 | 0.10 | 89 | 1012.6 |
| 20260505202403 | 14 | 76 | 1.6 | 3.2 | 0.03 | 0.10 | 0.10 | 89 | 1012.5 |
| 20260505202306 | 14 | 77 | 1.6 | 3.2 | 0.03 | 0.10 | 0.10 | 89 | 1012.5 |
| 20260505202203 | 14 | 81 | 1.6 | 3.2 | 0.03 | 0.10 | 0.10 | 89 | 1012.6 |
| 20260505202103 | 13 | 82 | 1.6 | 3.2 | 0.03 | 0.10 | 0.10 | 89 | 1012.6 |
| 20260505202003 | 13 | 82 | 1.6 | 3.2 | 0.03 | 0.10 | 0.10 | 89 | 1012.6 |
| 20260505201903 | 14 | 82 | 1.6 | 3.2 | 0.03 | 0.10 | 0.10 | 89 | 1012.6 |
| 20260505201803 | 13 | 82 | 1.6 | 3.2 | 0.03 | 0.10 | 0.10 | 89 | 1012.6 |
| 20260505201703 | 14 | 81 | 1.6 | 4.8 | 0.03 | 0.10 | 0.10 | 89 | 1012.6 |
| 20260505201603 | 14 | 82 | 1.6 | 4.8 | 0.03 | 0.10 | 0.10 | 89 | 1012.6 |
| 20260505201503 | 13 | 83 | 1.6 | 4.8 | 0.03 | 0.10 | 0.10 | 89 | 1012.6 |
| 20260505201403 | 13 | 85 | 1.6 | 4.8 | 0.03 | 0.10 | 0.10 | 89 | 1012.5 |
| 20260505201303 | 14 | 89 | 1.6 | 4.8 | 0.03 | 0.10 | 0.10 | 89 | 1012.5 |
| 20260505201203 | 14 | 92 | 1.6 | 4.8 | 0.03 | 0.10 | 0.10 | 89 | 1012.6 |
| 20260505201103 | 14 | 97 | 1.6 | 4.8 | 0.03 | 0.10 | 0.10 | 89 | 1012.6 |
| 20260505201003 | 14 | 102 | 1.6 | 4.8 | 0.03 | 0.10 | 0.10 | 89 | 1012.6 |
| 20260505200903 | 14 | 108 | 1.6 | 4.8 | 0.03 | 0.10 | 0.10 | 89 | 1012.6 |
| 20260505200803 | 14 | 111 | 1.6 | 4.8 | 0.03 | 0.10 | 0.10 | 89 | 1012.6 |
| 20260505200703 | 14 | 117 | 1.6 | 4.8 | 0.03 | 0.10 | 0.10 | 89 | 1012.7 |
| 20260505200603 | 14 | 117 | 1.6 | 4.8 | 0.03 | 0.10 | 0.10 | 89 | 1012.6 |
| 20260505200503 | 14 | 117 | 1.6 | 4.8 | 0.03 | 0.10 | 0.10 | 89 | 1012.6 |
| 20260505200403 | 14 | 120 | 1.6 | 4.8 | 0.03 | 0.10 | 0.10 | 89 | 1012.6 |
| 20260505200303 | 13 | 123 | 1.6 | 4.8 | 0.03 | 0.10 | 0.10 | 89 | 1012.6 |
| 20260505200203 | 14 | 124 | 1.6 | 4.8 | 0.03 | 0.10 | 0.10 | 88 | 1012.6 |
| 20260505200004 | 14 | 122 | 1.6 | 4.8 | 0.03 | 0.10 | 0.10 | 88 | 1012.6 |
| 20260505195903 | 14 | 120 | 1.6 | 4.8 | 0.03 | 0.10 | 0.10 | 88 | 1012.7 |
| 20260505195803 | 14 | 120 | 1.6 | 4.8 | 0.03 | 0.10 | 0.10 | 88 | 1012.7 |
| 20260505195703 | 14 | 122 | 1.6 | 4.8 | 0.03 | 0.10 | 0.10 | 88 | 1012.7 |
| 20260505195603 | 14 | 124 | 3.2 | 4.8 | 0.03 | 0.10 | 0.10 | 88 | 1012.7 |
| 20260505195503 | 14 | 125 | 3.2 | 4.8 | 0.03 | 0.10 | 0.10 | 88 | 1012.7 |
| 20260505195403 | 14 | 125 | 3.2 | 6.4 | 0.03 | 0.10 | 0.10 | 88 | 1012.7 |
| 20260505195305 | 14 | 125 | 3.2 | 6.4 | 0.00 | 0.08 | 0.08 | 88 | 1012.7 |
| 20260505195203 | 14 | 126 | 3.2 | 6.4 | 0.00 | 0.08 | 0.08 | 88 | 1012.7 |
| 20260505195103 | 14 | 128 | 3.2 | 6.4 | 0.00 | 0.08 | 0.08 | 88 | 1012.7 |
| 20260505195003 | 14 | 127 | 1.6 | 6.4 | 0.00 | 0.08 | 0.08 | 88 | 1012.7 |
| 20260505194903 | 14 | 127 | 3.2 | 6.4 | 0.00 | 0.08 | 0.08 | 88 | 1012.7 |
| 20260505194803 | 14 | 128 | 3.2 | 6.4 | 0.00 | 0.08 | 0.08 | 88 | 1012.7 |
| 20260505194703 | 14 | 126 | 3.2 | 6.4 | 0.00 | 0.08 | 0.08 | 88 | 1012.7 |
| 20260505194603 | 14 | 124 | 3.2 | 6.4 | 0.00 | 0.08 | 0.08 | 88 | 1012.6 |
| 20260505194503 | 14 | 124 | 3.2 | 6.4 | 0.00 | 0.08 | 0.08 | 88 | 1012.6 |
| 20260505194404 | 14 | 123 | 3.2 | 6.4 | 0.00 | 0.08 | 0.08 | 88 | 1012.6 |
| 20260505194303 | 14 | 121 | 3.2 | 6.4 | 0.00 | 0.08 | 0.08 | 88 | 1012.6 |
| 20260505194203 | 14 | 120 | 3.2 | 6.4 | 0.00 | 0.08 | 0.08 | 88 | 1012.6 |
| 20260505194103 | 14 | 120 | 3.2 | 6.4 | 0.00 | 0.08 | 0.08 | 88 | 1012.6 |
| 20260505194003 | 14 | 121 | 3.2 | 6.4 | 0.00 | 0.08 | 0.08 | 88 | 1012.6 |
| 20260505193903 | 14 | 122 | 3.2 | 6.4 | 0.00 | 0.08 | 0.08 | 88 | 1012.6 |
| 20260505193803 | 14 | 121 | 3.2 | 6.4 | 0.00 | 0.08 | 0.08 | 88 | 1012.6 |
| 20260505193703 | 14 | 122 | 3.2 | 6.4 | 0.00 | 0.08 | 0.08 | 88 | 1012.6 |
| 20260505193603 | 14 | 123 | 3.2 | 6.4 | 0.00 | 0.08 | 0.08 | 88 | 1012.6 |
| 20260505193503 | 14 | 123 | 4.8 | 6.4 | 0.00 | 0.08 | 0.08 | 88 | 1012.6 |
| 20260505193403 | 14 | 123 | 3.2 | 6.4 | 0.00 | 0.08 | 0.08 | 88 | 1012.6 |
| 20260505193303 | 14 | 123 | 3.2 | 6.4 | 0.00 | 0.08 | 0.08 | 88 | 1012.7 |
| 20260505193203 | 14 | 125 | 4.8 | 6.4 | 0.00 | 0.08 | 0.08 | 88 | 1012.7 |
| 20260505193103 | 14 | 125 | 4.8 | 6.4 | 0.00 | 0.08 | 0.08 | 88 | 1012.7 |
| 20260505193003 | 14 | 125 | 3.2 | 6.4 | 0.00 | 0.08 | 0.08 | 88 | 1012.6 |
| 20260505192903 | 14 | 126 | 4.8 | 6.4 | 0.00 | 0.08 | 0.08 | 88 | 1012.6 |
| 20260505192803 | 14 | 127 | 4.8 | 6.4 | 0.00 | 0.08 | 0.08 | 88 | 1012.6 |
| 20260505192703 | 14 | 125 | 3.2 | 6.4 | 0.00 | 0.08 | 0.08 | 88 | 1012.5 |
| 20260505192603 | 14 | 123 | 3.2 | 6.4 | 0.00 | 0.08 | 0.08 | 88 | 1012.5 |
| 20260505192503 | 14 | 124 | 3.2 | 6.4 | 0.00 | 0.08 | 0.08 | 88 | 1012.6 |
| 20260505192403 | 14 | 122 | 3.2 | 6.4 | 0.00 | 0.08 | 0.08 | 88 | 1012.6 |
| 20260505192305 | 14 | 123 | 4.8 | 6.4 | 0.00 | 0.08 | 0.08 | 88 | 1012.5 |
| 20260505192203 | 14 | 122 | 4.8 | 6.4 | 0.00 | 0.08 | 0.08 | 87 | 1012.6 |
| 20260505192103 | 14 | 120 | 3.2 | 6.4 | 0.00 | 0.08 | 0.08 | 87 | 1012.6 |
| 20260505192003 | 14 | 120 | 3.2 | 6.4 | 0.00 | 0.08 | 0.08 | 87 | 1012.5 |
| 20260505191903 | 14 | 121 | 3.2 | 6.4 | 0.00 | 0.08 | 0.08 | 87 | 1012.5 |
| 20260505191803 | 14 | 121 | 3.2 | 6.4 | 0.00 | 0.08 | 0.08 | 87 | 1012.5 |
| 20260505191703 | 14 | 122 | 3.2 | 6.4 | 0.00 | 0.08 | 0.08 | 87 | 1012.4 |
| 20260505191603 | 14 | 121 | 3.2 | 6.4 | 0.00 | 0.08 | 0.08 | 87 | 1012.4 |
| 20260505191503 | 14 | 120 | 3.2 | 6.4 | 0.00 | 0.08 | 0.08 | 87 | 1012.4 |
| 20260505191403 | 14 | 121 | 3.2 | 6.4 | 0.00 | 0.08 | 0.08 | 87 | 1012.4 |
| 20260505191303 | 14 | 117 | 3.2 | 6.4 | 0.00 | 0.08 | 0.08 | 87 | 1012.4 |
| 20260505191203 | 14 | 115 | 3.2 | 6.4 | 0.00 | 0.08 | 0.08 | 87 | 1012.5 |
| 20260505191103 | 14 | 111 | 3.2 | 6.4 | 0.00 | 0.08 | 0.08 | 87 | 1012.5 |
| 20260505191003 | 14 | 108 | 3.2 | 6.4 | 0.00 | 0.08 | 0.08 | 87 | 1012.4 |
| 20260505190903 | 14 | 103 | 3.2 | 6.4 | 0.00 | 0.08 | 0.08 | 87 | 1012.4 |
| 20260505190804 | 14 | 103 | 3.2 | 6.4 | 0.00 | 0.08 | 0.08 | 87 | 1012.4 |
| 20260505190704 | 14 | 101 | 3.2 | 6.4 | 0.00 | 0.08 | 0.08 | 87 | 1012.4 |
| 20260505190603 | 14 | 102 | 3.2 | 6.4 | 0.00 | 0.08 | 0.08 | 87 | 1012.4 |
| 20260505190503 | 14 | 102 | 3.2 | 6.4 | 0.00 | 0.08 | 0.08 | 87 | 1012.4 |
| 20260505190403 | 14 | 102 | 3.2 | 6.4 | 0.00 | 0.08 | 0.08 | 87 | 1012.4 |
| 20260505190303 | 14 | 107 | 3.2 | 9.7 | 0.00 | 0.08 | 0.08 | 87 | 1012.4 |
| 20260505190204 | 14 | 105 | 3.2 | 9.7 | 0.00 | 0.08 | 0.08 | 87 | 1012.4 |
| 20260505190103 | 14 | 109 | 3.2 | 9.7 | 0.00 | 0.08 | 0.08 | 87 | 1012.4 |
| 20260505190004 | 14 | 114 | 1.6 | 9.7 | 0.00 | 0.08 | 0.08 | 87 | 1012.4 |
| 20260505185903 | 14 | 112 | 3.2 | 9.7 | 0.00 | 0.08 | 0.08 | 87 | 1012.3 |
| 20260505185803 | 14 | 111 | 3.2 | 9.7 | 0.00 | 0.08 | 0.08 | 87 | 1012.3 |
| 20260505185703 | 14 | 110 | 3.2 | 9.7 | 0.00 | 0.08 | 0.08 | 87 | 1012.4 |
| 20260505185603 | 14 | 109 | 3.2 | 9.7 | 0.00 | 0.08 | 0.08 | 87 | 1012.4 |
| 20260505185503 | 14 | 108 | 3.2 | 9.7 | 0.00 | 0.08 | 0.08 | 87 | 1012.3 |
| 20260505185403 | 14 | 109 | 3.2 | 9.7 | 0.00 | 0.08 | 0.08 | 87 | 1012.3 |
| 20260505185305 | 14 | 107 | 3.2 | 9.7 | 0.00 | 0.08 | 0.08 | 87 | 1012.3 |
| 20260505185203 | 14 | 112 | 3.2 | 11.3 | 0.00 | 0.08 | 0.08 | 87 | 1012.3 |
| 20260505185103 | 14 | 111 | 3.2 | 11.3 | 0.00 | 0.08 | 0.08 | 87 | 1012.3 |
| 20260505185003 | 14 | 112 | 3.2 | 11.3 | 0.00 | 0.08 | 0.08 | 87 | 1012.3 |
| 20260505184903 | 14 | 116 | 4.8 | 11.3 | 0.00 | 0.08 | 0.08 | 87 | 1012.3 |
| 20260505184803 | 14 | 119 | 4.8 | 11.3 | 0.00 | 0.08 | 0.08 | 87 | 1012.3 |
| 20260505184703 | 14 | 120 | 4.8 | 11.3 | 0.00 | 0.08 | 0.08 | 87 | 1012.2 |
| 20260505184603 | 14 | 119 | 4.8 | 11.3 | 0.00 | 0.08 | 0.08 | 87 | 1012.3 |
| 20260505184503 | 14 | 118 | 4.8 | 11.3 | 0.00 | 0.08 | 0.08 | 87 | 1012.3 |
| 20260505184403 | 14 | 118 | 4.8 | 11.3 | 0.00 | 0.08 | 0.08 | 87 | 1012.3 |
| 20260505184303 | 14 | 118 | 4.8 | 11.3 | 0.00 | 0.08 | 0.08 | 87 | 1012.3 |
| 20260505184203 | 14 | 118 | 4.8 | 11.3 | 0.00 | 0.08 | 0.08 | 87 | 1012.3 |
| 20260505184103 | 14 | 119 | 3.2 | 11.3 | 0.00 | 0.08 | 0.08 | 87 | 1012.2 |
| 20260505184003 | 14 | 118 | 3.2 | 11.3 | 0.00 | 0.08 | 0.08 | 87 | 1012.2 |
| 20260505183903 | 14 | 118 | 3.2 | 9.7 | 0.00 | 0.08 | 0.08 | 87 | 1012.2 |
| 20260505183803 | 14 | 112 | 3.2 | 6.4 | 0.00 | 0.08 | 0.08 | 87 | 1012.2 |
| 20260505183703 | 14 | 107 | 3.2 | 8.0 | 0.00 | 0.08 | 0.08 | 87 | 1012.2 |
| 20260505183603 | 14 | 102 | 3.2 | 8.0 | 0.00 | 0.08 | 0.08 | 87 | 1012.1 |
| 20260505183503 | 14 | 99 | 3.2 | 8.0 | 0.00 | 0.08 | 0.08 | 87 | 1012.1 |
| 20260505183403 | 14 | 93 | 3.2 | 11.3 | 0.00 | 0.08 | 0.08 | 87 | 1012.2 |
| 20260505183303 | 14 | 91 | 3.2 | 11.3 | 0.00 | 0.08 | 0.08 | 87 | 1012.2 |
| 20260505183203 | 14 | 90 | 4.8 | 11.3 | 0.00 | 0.08 | 0.08 | 87 | 1012.2 |
| 20260505183103 | 14 | 88 | 4.8 | 11.3 | 0.00 | 0.08 | 0.08 | 87 | 1012.2 |
| 20260505183003 | 14 | 91 | 4.8 | 11.3 | 0.00 | 0.08 | 0.08 | 87 | 1012.2 |
| 20260505182903 | 14 | 89 | 4.8 | 11.3 | 0.00 | 0.08 | 0.08 | 87 | 1012.2 |
| 20260505182803 | 14 | 87 | 4.8 | 11.3 | 0.00 | 0.08 | 0.08 | 87 | 1012.2 |
| 20260505182703 | 14 | 84 | 4.8 | 11.3 | 0.00 | 0.08 | 0.08 | 87 | 1012.2 |
| 20260505182603 | 14 | 84 | 4.8 | 11.3 | 0.00 | 0.08 | 0.08 | 87 | 1012.2 |
| 20260505182503 | 14 | 82 | 3.2 | 11.3 | 0.00 | 0.08 | 0.08 | 87 | 1012.2 |
| 20260505182403 | 14 | 82 | 3.2 | 9.7 | 0.00 | 0.08 | 0.08 | 87 | 1012.2 |
| 20260505182306 | 14 | 82 | 3.2 | 8.0 | 0.00 | 0.08 | 0.08 | 87 | 1012.2 |
| 20260505182204 | 14 | 79 | 3.2 | 6.4 | 0.00 | 0.08 | 0.08 | 87 | 1012.2 |
| 20260505182103 | 14 | 72 | 3.2 | 6.4 | 0.00 | 0.08 | 0.08 | 87 | 1012.2 |
| 20260505182003 | 14 | 65 | 1.6 | 6.4 | 0.00 | 0.08 | 0.08 | 87 | 1012.2 |
| 20260505181903 | 14 | 65 | 3.2 | 6.4 | 0.00 | 0.08 | 0.08 | 87 | 1012.2 |
| 20260505181803 | 14 | 69 | 3.2 | 6.4 | 0.00 | 0.08 | 0.08 | 87 | 1012.2 |
| 20260505181703 | 14 | 73 | 1.6 | 6.4 | 0.00 | 0.08 | 0.08 | 87 | 1012.2 |
| 20260505181604 | 14 | 72 | 1.6 | 6.4 | 0.00 | 0.08 | 0.08 | 87 | 1012.2 |
| 20260505181503 | 14 | 70 | 3.2 | 6.4 | 0.00 | 0.08 | 0.08 | 87 | 1012.2 |
| 20260505181403 | 14 | 69 | 3.2 | 6.4 | 0.00 | 0.08 | 0.08 | 87 | 1012.2 |
| 20260505181303 | 14 | 67 | 3.2 | 6.4 | 0.00 | 0.08 | 0.08 | 87 | 1012.1 |
| 20260505181203 | 14 | 64 | 3.2 | 6.4 | 0.00 | 0.08 | 0.08 | 87 | 1012.1 |
| 20260505181103 | 14 | 66 | 3.2 | 8.0 | 0.00 | 0.08 | 0.08 | 87 | 1012.2 |
| 20260505181003 | 14 | 67 | 3.2 | 8.0 | 0.00 | 0.08 | 0.08 | 87 | 1012.1 |
| 20260505180903 | 14 | 70 | 3.2 | 8.0 | 0.00 | 0.08 | 0.08 | 86 | 1012.1 |
| 20260505180803 | 14 | 69 | 3.2 | 8.0 | 0.00 | 0.08 | 0.08 | 87 | 1012.2 |
| 20260505180703 | 14 | 71 | 3.2 | 8.0 | 0.00 | 0.08 | 0.08 | 86 | 1012.2 |
| 20260505180603 | 14 | 75 | 3.2 | 8.0 | 0.00 | 0.08 | 0.08 | 86 | 1012.1 |
| 20260505180503 | 14 | 77 | 3.2 | 9.7 | 0.00 | 0.08 | 0.08 | 86 | 1012.1 |
| 20260505180403 | 14 | 79 | 4.8 | 9.7 | 0.00 | 0.08 | 0.08 | 86 | 1012.1 |
| 20260505180303 | 14 | 81 | 4.8 | 9.7 | 0.00 | 0.08 | 0.08 | 86 | 1012.2 |
| 20260505180203 | 14 | 84 | 3.2 | 9.7 | 0.00 | 0.08 | 0.08 | 86 | 1012.1 |
| 20260505180103 | 14 | 85 | 3.2 | 9.7 | 0.00 | 0.08 | 0.08 | 86 | 1012.1 |
| 20260505180004 | 14 | 86 | 3.2 | 9.7 | 0.00 | 0.08 | 0.08 | 86 | 1012.2 |
| 20260505175903 | 14 | 85 | 3.2 | 9.7 | 0.00 | 0.08 | 0.08 | 86 | 1012.2 |
| 20260505175803 | 14 | 85 | 4.8 | 9.7 | 0.00 | 0.08 | 0.08 | 86 | 1012.1 |
| 20260505175703 | 14 | 85 | 4.8 | 9.7 | 0.00 | 0.08 | 0.08 | 86 | 1012.2 |
| 20260505175603 | 14 | 83 | 4.8 | 9.7 | 0.00 | 0.08 | 0.08 | 86 | 1012.2 |
| 20260505175503 | 14 | 86 | 4.8 | 8.0 | 0.00 | 0.08 | 0.08 | 86 | 1012.2 |
| 20260505175403 | 15 | 88 | 4.8 | 11.3 | 0.00 | 0.08 | 0.08 | 86 | 1012.2 |
| 20260505175305 | 15 | 88 | 4.8 | 11.3 | 0.00 | 0.08 | 0.08 | 86 | 1012.1 |
| 20260505175203 | 15 | 89 | 4.8 | 11.3 | 0.00 | 0.08 | 0.08 | 86 | 1012.2 |
| 20260505175103 | 14 | 89 | 4.8 | 12.9 | 0.00 | 0.08 | 0.08 | 86 | 1012.2 |
| 20260505175003 | 14 | 88 | 6.4 | 12.9 | 0.00 | 0.08 | 0.08 | 86 | 1012.1 |
| 20260505174903 | 14 | 88 | 6.4 | 12.9 | 0.00 | 0.08 | 0.08 | 86 | 1012.1 |
| 20260505174803 | 14 | 88 | 6.4 | 12.9 | 0.00 | 0.08 | 0.08 | 86 | 1012.1 |
| 20260505174703 | 14 | 87 | 6.4 | 12.9 | 0.00 | 0.08 | 0.08 | 86 | 1012.1 |
| 20260505174603 | 15 | 88 | 6.4 | 12.9 | 0.00 | 0.08 | 0.08 | 86 | 1012.1 |
| 20260505174503 | 14 | 88 | 8.0 | 12.9 | 0.00 | 0.08 | 0.08 | 86 | 1012.1 |
| 20260505174403 | 15 | 89 | 8.0 | 12.9 | 0.00 | 0.08 | 0.08 | 86 | 1012.2 |
| 20260505174303 | 15 | 89 | 8.0 | 12.9 | 0.00 | 0.08 | 0.08 | 86 | 1012.2 |
| 20260505174203 | 15 | 89 | 8.0 | 12.9 | 0.00 | 0.08 | 0.08 | 85 | 1012.1 |
| 20260505174103 | 15 | 89 | 8.0 | 12.9 | 0.00 | 0.08 | 0.08 | 85 | 1012.1 |
| 20260505174003 | 15 | 89 | 6.4 | 12.9 | 0.00 | 0.08 | 0.08 | 85 | 1012.1 |
| 20260505173903 | 15 | 91 | 6.4 | 12.9 | 0.00 | 0.08 | 0.08 | 85 | 1012.2 |
| 20260505173803 | 15 | 90 | 6.4 | 12.9 | 0.00 | 0.08 | 0.08 | 85 | 1012.2 |
| 20260505173703 | 15 | 91 | 6.4 | 11.3 | 0.00 | 0.08 | 0.08 | 85 | 1012.1 |
| 20260505173603 | 15 | 91 | 6.4 | 11.3 | 0.00 | 0.08 | 0.08 | 85 | 1012.1 |
| 20260505173503 | 15 | 91 | 6.4 | 11.3 | 0.00 | 0.08 | 0.08 | 85 | 1012.1 |
| 20260505173403 | 15 | 90 | 4.8 | 11.3 | 0.00 | 0.08 | 0.08 | 85 | 1012.1 |
| 20260505173303 | 15 | 88 | 4.8 | 11.3 | 0.00 | 0.08 | 0.08 | 85 | 1012.1 |
| 20260505173203 | 15 | 87 | 4.8 | 11.3 | 0.00 | 0.08 | 0.08 | 85 | 1012.1 |
| 20260505173103 | 15 | 86 | 4.8 | 11.3 | 0.00 | 0.08 | 0.08 | 85 | 1012.1 |
| 20260505173003 | 15 | 85 | 4.8 | 11.3 | 0.00 | 0.08 | 0.08 | 85 | 1012.1 |
| 20260505172903 | 15 | 83 | 4.8 | 11.3 | 0.00 | 0.08 | 0.08 | 85 | 1012.1 |
| 20260505172803 | 15 | 84 | 4.8 | 11.3 | 0.00 | 0.08 | 0.08 | 85 | 1012.1 |
| 20260505172703 | 15 | 83 | 4.8 | 11.3 | 0.00 | 0.08 | 0.08 | 85 | 1012.0 |
| 20260505172603 | 15 | 82 | 4.8 | 11.3 | 0.00 | 0.08 | 0.08 | 84 | 1012.1 |
| 20260505172503 | 15 | 80 | 4.8 | 11.3 | 0.00 | 0.08 | 0.08 | 84 | 1012.1 |
| 20260505172403 | 15 | 78 | 4.8 | 11.3 | 0.00 | 0.08 | 0.08 | 85 | 1012.1 |
| 20260505172305 | 15 | 79 | 4.8 | 11.3 | 0.00 | 0.08 | 0.08 | 85 | 1012.1 |
| 20260505172203 | 15 | 82 | 4.8 | 11.3 | 0.00 | 0.08 | 0.08 | 84 | 1012.1 |
| 20260505172103 | 15 | 77 | 4.8 | 11.3 | 0.00 | 0.08 | 0.08 | 84 | 1012.1 |
| 20260505172003 | 15 | 78 | 4.8 | 11.3 | 0.00 | 0.08 | 0.08 | 84 | 1012.1 |
| 20260505171903 | 15 | 76 | 4.8 | 11.3 | 0.00 | 0.08 | 0.08 | 84 | 1012.1 |
| 20260505171803 | 15 | 70 | 4.8 | 11.3 | 0.00 | 0.08 | 0.08 | 84 | 1012.1 |
| 20260505171703 | 15 | 69 | 4.8 | 8.0 | 0.00 | 0.08 | 0.08 | 84 | 1012.1 |
| 20260505171603 | 15 | 67 | 4.8 | 8.0 | 0.00 | 0.08 | 0.08 | 84 | 1012.2 |
| 20260505171503 | 15 | 67 | 4.8 | 8.0 | 0.00 | 0.08 | 0.08 | 84 | 1012.2 |
| 20260505171403 | 15 | 68 | 4.8 | 8.0 | 0.00 | 0.08 | 0.08 | 84 | 1012.1 |
| 20260505171303 | 15 | 66 | 4.8 | 8.0 | 0.00 | 0.08 | 0.08 | 84 | 1012.2 |
| 20260505171203 | 15 | 63 | 4.8 | 8.0 | 0.00 | 0.08 | 0.08 | 84 | 1012.2 |
| 20260505171103 | 15 | 66 | 4.8 | 8.0 | 0.00 | 0.08 | 0.08 | 83 | 1012.2 |
| 20260505171003 | 15 | 65 | 4.8 | 8.0 | 0.00 | 0.08 | 0.08 | 83 | 1012.2 |
| 20260505170903 | 15 | 65 | 4.8 | 8.0 | 0.00 | 0.08 | 0.08 | 83 | 1012.2 |
| 20260505170803 | 15 | 67 | 3.2 | 8.0 | 0.00 | 0.08 | 0.08 | 84 | 1012.2 |
| 20260505170703 | 15 | 65 | 4.8 | 8.0 | 0.00 | 0.08 | 0.08 | 83 | 1012.2 |
| 20260505170603 | 15 | 65 | 4.8 | 8.0 | 0.00 | 0.08 | 0.08 | 83 | 1012.2 |
| 20260505170503 | 15 | 62 | 3.2 | 8.0 | 0.00 | 0.08 | 0.08 | 83 | 1012.2 |
| 20260505170403 | 15 | 59 | 4.8 | 8.0 | 0.00 | 0.08 | 0.08 | 83 | 1012.2 |
| 20260505170303 | 15 | 57 | 4.8 | 8.0 | 0.00 | 0.08 | 0.08 | 83 | 1012.2 |
| 20260505170203 | 15 | 58 | 4.8 | 8.0 | 0.00 | 0.08 | 0.08 | 83 | 1012.2 |
| 20260505170003 | 15 | 58 | 3.2 | 8.0 | 0.00 | 0.08 | 0.08 | 83 | 1012.2 |
| 20260505165903 | 15 | 57 | 3.2 | 8.0 | 0.00 | 0.08 | 0.08 | 83 | 1012.2 |
| 20260505165803 | 15 | 59 | 3.2 | 8.0 | 0.00 | 0.08 | 0.08 | 82 | 1012.1 |
| 20260505165703 | 15 | 59 | 3.2 | 8.0 | 0.00 | 0.08 | 0.08 | 82 | 1012.1 |
| 20260505165603 | 15 | 61 | 3.2 | 8.0 | 0.00 | 0.08 | 0.08 | 82 | 1012.1 |
| 20260505165503 | 15 | 68 | 3.2 | 8.0 | 0.00 | 0.08 | 0.08 | 82 | 1012.1 |
| 20260505165403 | 15 | 81 | 1.6 | 6.4 | 0.00 | 0.08 | 0.08 | 82 | 1012.1 |
| 20260505165306 | 15 | 92 | 1.6 | 6.4 | 0.00 | 0.08 | 0.08 | 82 | 1012.2 |
| 20260505165203 | 15 | 96 | 1.6 | 6.4 | 0.00 | 0.08 | 0.08 | 82 | 1012.2 |
| 20260505165103 | 15 | 102 | 1.6 | 6.4 | 0.00 | 0.08 | 0.08 | 82 | 1012.2 |
| 20260505165003 | 15 | 102 | 1.6 | 6.4 | 0.00 | 0.08 | 0.08 | 82 | 1012.2 |
| 20260505164903 | 15 | 104 | 1.6 | 6.4 | 0.00 | 0.08 | 0.08 | 82 | 1012.2 |
| 20260505164803 | 15 | 107 | 1.6 | 6.4 | 0.00 | 0.08 | 0.08 | 82 | 1012.1 |
| 20260505164703 | 15 | 107 | 1.6 | 6.4 | 0.00 | 0.08 | 0.08 | 82 | 1012.1 |
| 20260505164603 | 15 | 105 | 1.6 | 6.4 | 0.00 | 0.08 | 0.08 | 82 | 1012.1 |
| 20260505164503 | 15 | 100 | 1.6 | 6.4 | 0.00 | 0.08 | 0.08 | 82 | 1012.2 |
| 20260505164403 | 15 | 94 | 1.6 | 4.8 | 0.00 | 0.08 | 0.08 | 82 | 1012.2 |
| 20260505164303 | 15 | 90 | 1.6 | 6.4 | 0.00 | 0.08 | 0.08 | 82 | 1012.2 |
| 20260505164203 | 15 | 89 | 3.2 | 6.4 | 0.00 | 0.08 | 0.08 | 81 | 1012.2 |
| 20260505164103 | 15 | 88 | 3.2 | 6.4 | 0.00 | 0.08 | 0.08 | 82 | 1012.2 |
| 20260505164003 | 15 | 90 | 3.2 | 6.4 | 0.00 | 0.08 | 0.08 | 82 | 1012.3 |
| 20260505163903 | 15 | 89 | 3.2 | 6.4 | 0.00 | 0.08 | 0.08 | 82 | 1012.3 |
| 20260505163803 | 15 | 85 | 3.2 | 6.4 | 0.00 | 0.08 | 0.08 | 81 | 1012.2 |
| 20260505163703 | 15 | 82 | 3.2 | 6.4 | 0.00 | 0.08 | 0.08 | 82 | 1012.3 |
| 20260505163603 | 15 | 82 | 1.6 | 6.4 | 0.00 | 0.08 | 0.08 | 82 | 1012.3 |
| 20260505163503 | 15 | 83 | 1.6 | 6.4 | 0.00 | 0.08 | 0.08 | 82 | 1012.2 |
| 20260505163403 | 15 | 84 | 1.6 | 6.4 | 0.00 | 0.08 | 0.08 | 82 | 1012.2 |
| 20260505163303 | 15 | 88 | 1.6 | 6.4 | 0.00 | 0.08 | 0.08 | 82 | 1012.2 |
| 20260505163203 | 15 | 93 | 1.6 | 6.4 | 0.00 | 0.08 | 0.08 | 82 | 1012.3 |
| 20260505163103 | 15 | 101 | 1.6 | 4.8 | 0.00 | 0.08 | 0.08 | 82 | 1012.3 |
| 20260505163003 | 15 | 101 | 1.6 | 3.2 | 0.00 | 0.08 | 0.08 | 82 | 1012.2 |
| 20260505162903 | 15 | 106 | 1.6 | 3.2 | 0.00 | 0.08 | 0.08 | 82 | 1012.2 |
| 20260505162803 | 15 | 118 | 1.6 | 4.8 | 0.00 | 0.08 | 0.08 | 82 | 1012.3 |
| 20260505162703 | 15 | 131 | 1.6 | 4.8 | 0.00 | 0.08 | 0.08 | 82 | 1012.3 |
| 20260505162603 | 15 | 133 | 1.6 | 4.8 | 0.00 | 0.08 | 0.08 | 82 | 1012.3 |
| 20260505162503 | 15 | 134 | 1.6 | 4.8 | 0.00 | 0.08 | 0.08 | 82 | 1012.3 |
| 20260505162403 | 15 | 135 | 1.6 | 4.8 | 0.00 | 0.08 | 0.08 | 82 | 1012.3 |
| 20260505162306 | 15 | 134 | 1.6 | 4.8 | 0.00 | 0.08 | 0.08 | 82 | 1012.3 |
| 20260505162203 | 15 | 133 | 1.6 | 4.8 | 0.00 | 0.08 | 0.08 | 82 | 1012.3 |
| 20260505162103 | 15 | 133 | 1.6 | 4.8 | 0.00 | 0.08 | 0.08 | 82 | 1012.3 |
| 20260505162003 | 15 | 132 | 1.6 | 4.8 | 0.00 | 0.08 | 0.08 | 82 | 1012.3 |
| 20260505161903 | 15 | 131 | 1.6 | 4.8 | 0.00 | 0.08 | 0.08 | 82 | 1012.3 |
| 20260505161803 | 15 | 130 | 1.6 | 4.8 | 0.00 | 0.08 | 0.08 | 82 | 1012.3 |
| 20260505161703 | 15 | 126 | 1.6 | 4.8 | 0.00 | 0.08 | 0.08 | 82 | 1012.3 |
| 20260505161603 | 15 | 125 | 1.6 | 4.8 | 0.00 | 0.08 | 0.08 | 82 | 1012.3 |
| 20260505161503 | 15 | 126 | 1.6 | 4.8 | 0.00 | 0.08 | 0.08 | 82 | 1012.3 |
| 20260505161403 | 15 | 125 | 1.6 | 4.8 | 0.00 | 0.08 | 0.08 | 82 | 1012.3 |
| 20260505161303 | 15 | 126 | 1.6 | 4.8 | 0.00 | 0.08 | 0.08 | 82 | 1012.3 |
| 20260505161203 | 15 | 126 | 1.6 | 4.8 | 0.00 | 0.08 | 0.08 | 82 | 1012.3 |
| 20260505161103 | 15 | 125 | 1.6 | 4.8 | 0.00 | 0.08 | 0.08 | 82 | 1012.3 |
| 20260505161003 | 15 | 121 | 1.6 | 4.8 | 0.00 | 0.08 | 0.08 | 82 | 1012.3 |
| 20260505160903 | 15 | 121 | 1.6 | 4.8 | 0.00 | 0.08 | 0.08 | 82 | 1012.3 |
| 20260505160803 | 15 | 126 | 1.6 | 4.8 | 0.00 | 0.08 | 0.08 | 82 | 1012.3 |
| 20260505160703 | 15 | 133 | 1.6 | 4.8 | 0.00 | 0.08 | 0.08 | 82 | 1012.3 |
| 20260505160603 | 15 | 137 | 1.6 | 4.8 | 0.00 | 0.08 | 0.08 | 82 | 1012.3 |
| 20260505160503 | 15 | 138 | 1.6 | 6.4 | 0.00 | 0.08 | 0.08 | 83 | 1012.3 |
| 20260505160403 | 15 | 137 | 1.6 | 6.4 | 0.00 | 0.08 | 0.08 | 83 | 1012.3 |
| 20260505160303 | 15 | 139 | 1.6 | 6.4 | 0.00 | 0.08 | 0.08 | 83 | 1012.3 |
| 20260505160203 | 15 | 139 | 1.6 | 6.4 | 0.00 | 0.08 | 0.08 | 83 | 1012.3 |
| 20260505153303 | 15 | 154 | 4.8 | 8.0 | 0.00 | 0.08 | 0.08 | 83 | 1012.6 |
| 20260505153203 | 15 | 154 | 4.8 | 8.0 | 0.00 | 0.08 | 0.08 | 83 | 1012.6 |
| 20260505153103 | 15 | 154 | 3.2 | 8.0 | 0.00 | 0.08 | 0.08 | 83 | 1012.5 |
| 20260505153003 | 15 | 156 | 3.2 | 8.0 | 0.00 | 0.08 | 0.08 | 83 | 1012.6 |
| 20260505152903 | 15 | 156 | 3.2 | 8.0 | 0.00 | 0.08 | 0.08 | 83 | 1012.6 |
| 20260505152803 | 15 | 158 | 3.2 | 8.0 | 0.00 | 0.08 | 0.08 | 83 | 1012.6 |
| 20260505152704 | 15 | 161 | 3.2 | 8.0 | 0.00 | 0.08 | 0.08 | 83 | 1012.6 |
| 20260505152604 | 15 | 163 | 3.2 | 8.0 | 0.00 | 0.08 | 0.08 | 83 | 1012.5 |
| 20260505152504 | 15 | 166 | 3.2 | 8.0 | 0.00 | 0.08 | 0.08 | 83 | 1012.6 |
| 20260505152403 | 15 | 169 | 4.8 | 8.0 | 0.00 | 0.08 | 0.08 | 83 | 1012.6 |
| 20260505152305 | 15 | 169 | 3.2 | 8.0 | 0.00 | 0.08 | 0.08 | 84 | 1012.6 |
| 20260505152203 | 15 | 170 | 3.2 | 8.0 | 0.00 | 0.08 | 0.08 | 84 | 1012.6 |
| 20260505152103 | 15 | 169 | 3.2 | 8.0 | 0.00 | 0.08 | 0.08 | 84 | 1012.6 |
| 20260505152003 | 15 | 168 | 3.2 | 8.0 | 0.00 | 0.08 | 0.08 | 84 | 1012.5 |
| 20260505151903 | 15 | 167 | 3.2 | 8.0 | 0.00 | 0.08 | 0.08 | 83 | 1012.5 |
| 20260505151803 | 15 | 164 | 3.2 | 8.0 | 0.00 | 0.08 | 0.08 | 84 | 1012.5 |
| 20260505151703 | 15 | 163 | 3.2 | 8.0 | 0.00 | 0.08 | 0.08 | 83 | 1012.5 |
| 20260505151603 | 15 | 162 | 3.2 | 8.0 | 0.00 | 0.08 | 0.08 | 83 | 1012.5 |
| 20260505151503 | 15 | 158 | 3.2 | 8.0 | 0.00 | 0.08 | 0.08 | 84 | 1012.5 |
| 20260505151404 | 15 | 151 | 3.2 | 8.0 | 0.00 | 0.08 | 0.08 | 84 | 1012.5 |
| 20260505151303 | 15 | 143 | 1.6 | 4.8 | 0.00 | 0.08 | 0.08 | 84 | 1012.5 |
| 20260505151203 | 15 | 140 | 1.6 | 4.8 | 0.00 | 0.08 | 0.08 | 84 | 1012.6 |
| 20260505151103 | 15 | 136 | 1.6 | 4.8 | 0.00 | 0.08 | 0.08 | 84 | 1012.6 |
| 20260505151003 | 15 | 133 | 1.6 | 4.8 | 0.00 | 0.08 | 0.08 | 84 | 1012.6 |
| 20260505150903 | 15 | 135 | 1.6 | 4.8 | 0.00 | 0.08 | 0.08 | 84 | 1012.6 |
| 20260505150803 | 15 | 143 | 1.6 | 4.8 | 0.00 | 0.08 | 0.08 | 84 | 1012.5 |
| 20260505150703 | 15 | 145 | 1.6 | 4.8 | 0.00 | 0.08 | 0.08 | 84 | 1012.5 |
| 20260505150603 | 15 | 145 | 1.6 | 4.8 | 0.00 | 0.08 | 0.08 | 84 | 1012.5 |
| 20260505150503 | 15 | 146 | 1.6 | 4.8 | 0.00 | 0.08 | 0.08 | 84 | 1012.5 |
| 20260505150403 | 14 | 146 | 1.6 | 4.8 | 0.00 | 0.08 | 0.08 | 84 | 1012.5 |
| 20260505150303 | 14 | 148 | 1.6 | 4.8 | 0.00 | 0.08 | 0.08 | 84 | 1012.5 |
| 20260505150203 | 15 | 151 | 1.6 | 6.4 | 0.00 | 0.08 | 0.08 | 84 | 1012.6 |
| 20260505150103 | 14 | 155 | 1.6 | 6.4 | 0.00 | 0.08 | 0.08 | 85 | 1012.6 |
| 20260505140603 | 14 | 177 | 6.4 | 11.3 | 0.00 | 0.08 | 0.08 | 84 | 1012.7 |
| 20260505140503 | 14 | 176 | 4.8 | 11.3 | 0.00 | 0.08 | 0.08 | 84 | 1012.6 |
| 20260505140403 | 14 | 178 | 4.8 | 11.3 | 0.00 | 0.08 | 0.08 | 84 | 1012.6 |
| 20260505140303 | 14 | 180 | 4.8 | 12.9 | 0.00 | 0.08 | 0.08 | 84 | 1012.6 |
| 20260505140203 | 14 | 181 | 4.8 | 12.9 | 0.00 | 0.08 | 0.08 | 84 | 1012.6 |
| 20260505130303 | 15 | 47 | 4.8 | 11.3 | 0.00 | 0.08 | 0.08 | 81 | 1012.8 |
| 20260505130203 | 15 | 43 | 6.4 | 11.3 | 0.00 | 0.08 | 0.08 | 81 | 1012.8 |
| 20260505130103 | 15 | 36 | 6.4 | 11.3 | 0.00 | 0.08 | 0.08 | 81 | 1012.7 |
| 20260505125003 | 15 | 13 | 6.4 | 12.9 | 0.00 | 0.08 | 0.08 | 81 | 1012.8 |
| 20260505124903 | 15 | 14 | 6.4 | 12.9 | 0.00 | 0.08 | 0.08 | 81 | 1012.8 |
| 20260505124803 | 15 | 14 | 6.4 | 12.9 | 0.00 | 0.08 | 0.08 | 81 | 1012.8 |
| 20260505124703 | 15 | 14 | 6.4 | 12.9 | 0.00 | 0.08 | 0.08 | 81 | 1012.8 |
| 20260505124603 | 15 | 13 | 4.8 | 12.9 | 0.00 | 0.08 | 0.08 | 81 | 1012.9 |
| 20260505124503 | 15 | 15 | 4.8 | 12.9 | 0.00 | 0.08 | 0.08 | 81 | 1012.9 |
| 20260505124403 | 15 | 15 | 4.8 | 12.9 | 0.00 | 0.08 | 0.08 | 81 | 1012.9 |
| 20260505124303 | 15 | 13 | 4.8 | 12.9 | 0.00 | 0.08 | 0.08 | 81 | 1012.8 |
| 20260505124203 | 15 | 16 | 3.2 | 12.9 | 0.00 | 0.08 | 0.08 | 81 | 1012.8 |
| 20260505124103 | 15 | 16 | 3.2 | 12.9 | 0.00 | 0.08 | 0.08 | 81 | 1012.9 |
| 20260505124003 | 15 | 17 | 3.2 | 8.0 | 0.00 | 0.08 | 0.08 | 81 | 1012.8 |
| 20260505123903 | 15 | 22 | 1.6 | 8.0 | 0.00 | 0.08 | 0.08 | 81 | 1012.8 |
| 20260505123803 | 15 | 32 | 1.6 | 8.0 | 0.00 | 0.08 | 0.08 | 81 | 1012.9 |
| 20260505123703 | 15 | 38 | 3.2 | 8.0 | 0.00 | 0.08 | 0.08 | 81 | 1012.9 |
| 20260505123603 | 15 | 41 | 3.2 | 8.0 | 0.00 | 0.08 | 0.08 | 81 | 1012.9 |
| 20260505123503 | 15 | 45 | 3.2 | 8.0 | 0.00 | 0.08 | 0.08 | 81 | 1013.0 |
| 20260505123403 | 15 | 46 | 3.2 | 8.0 | 0.00 | 0.08 | 0.08 | 81 | 1013.0 |
| 20260505123303 | 15 | 45 | 3.2 | 8.0 | 0.00 | 0.08 | 0.08 | 81 | 1012.9 |
| 20260505123203 | 15 | 41 | 3.2 | 8.0 | 0.00 | 0.08 | 0.08 | 80 | 1012.9 |
| 20260505123103 | 15 | 36 | 3.2 | 8.0 | 0.00 | 0.08 | 0.08 | 81 | 1012.9 |
| 20260505123003 | 15 | 31 | 4.8 | 8.0 | 0.00 | 0.08 | 0.08 | 80 | 1013.0 |
| 20260505122903 | 15 | 26 | 4.8 | 8.0 | 0.00 | 0.08 | 0.08 | 80 | 1013.0 |
| 20260505122803 | 15 | 22 | 3.2 | 8.0 | 0.00 | 0.08 | 0.08 | 80 | 1012.9 |
| 20260505122703 | 15 | 17 | 3.2 | 8.0 | 0.00 | 0.08 | 0.08 | 80 | 1012.9 |
| 20260505122603 | 15 | 12 | 3.2 | 8.0 | 0.00 | 0.08 | 0.08 | 80 | 1012.9 |
| 20260505122504 | 15 | 7 | 3.2 | 8.0 | 0.00 | 0.08 | 0.08 | 80 | 1012.8 |
| 20260505122403 | 15 | 6 | 3.2 | 6.4 | 0.00 | 0.08 | 0.08 | 80 | 1012.8 |
| 20260505122305 | 15 | 7 | 3.2 | 8.0 | 0.00 | 0.08 | 0.08 | 80 | 1012.8 |
| 20260505122204 | 15 | 13 | 3.2 | 8.0 | 0.00 | 0.08 | 0.08 | 80 | 1012.9 |
| 20260505122103 | 15 | 17 | 3.2 | 8.0 | 0.00 | 0.08 | 0.08 | 80 | 1012.9 |
| 20260505122003 | 15 | 20 | 3.2 | 8.0 | 0.00 | 0.08 | 0.08 | 80 | 1012.9 |
| 20260505121903 | 15 | 19 | 3.2 | 8.0 | 0.00 | 0.08 | 0.08 | 80 | 1012.9 |
| 20260505121803 | 15 | 19 | 3.2 | 8.0 | 0.00 | 0.08 | 0.08 | 80 | 1012.9 |
| 20260505121703 | 15 | 16 | 3.2 | 8.0 | 0.00 | 0.08 | 0.08 | 80 | 1012.9 |
| 20260505121603 | 15 | 14 | 3.2 | 8.0 | 0.00 | 0.08 | 0.08 | 80 | 1012.9 |
| 20260505121503 | 15 | 10 | 4.8 | 8.0 | 0.00 | 0.08 | 0.08 | 80 | 1012.8 |
| 20260505121403 | 15 | 5 | 4.8 | 9.7 | 0.00 | 0.08 | 0.08 | 80 | 1012.9 |
| 20260505121303 | 15 | 4 | 4.8 | 9.7 | 0.00 | 0.08 | 0.08 | 80 | 1012.9 |
| 20260505121204 | 15 | 360 | 4.8 | 9.7 | 0.00 | 0.08 | 0.08 | 80 | 1012.9 |
| 20260505121103 | 15 | 359 | 4.8 | 9.7 | 0.00 | 0.08 | 0.08 | 80 | 1012.9 |
| 20260505121003 | 15 | 358 | 4.8 | 9.7 | 0.00 | 0.08 | 0.08 | 80 | 1012.9 |
| 20260505120904 | 15 | 359 | 3.2 | 9.7 | 0.00 | 0.08 | 0.08 | 80 | 1012.9 |
| 20260505120803 | 15 | 358 | 4.8 | 9.7 | 0.00 | 0.08 | 0.08 | 80 | 1012.9 |
| 20260505120703 | 15 | 357 | 4.8 | 9.7 | 0.00 | 0.08 | 0.08 | 80 | 1012.9 |
| 20260505120603 | 15 | 3 | 4.8 | 9.7 | 0.00 | 0.08 | 0.08 | 80 | 1012.9 |
| 20260505120503 | 15 | 8 | 4.8 | 9.7 | 0.00 | 0.08 | 0.08 | 80 | 1012.9 |
| 20260505120403 | 15 | 12 | 4.8 | 12.9 | 0.00 | 0.08 | 0.08 | 80 | 1012.9 |
| 20260505120303 | 15 | 11 | 4.8 | 12.9 | 0.00 | 0.08 | 0.08 | 80 | 1012.9 |
| 20260505120203 | 15 | 10 | 4.8 | 12.9 | 0.00 | 0.08 | 0.08 | 80 | 1012.9 |
| 20260505120103 | 15 | 10 | 4.8 | 12.9 | 0.00 | 0.08 | 0.08 | 80 | 1012.9 |
| 20260505120005 | 15 | 8 | 4.8 | 12.9 | 0.00 | 0.08 | 0.08 | 80 | 1012.9 |
| 20260505115903 | 15 | 7 | 4.8 | 12.9 | 0.00 | 0.08 | 0.08 | 81 | 1012.9 |
| 20260505115803 | 15 | 6 | 4.8 | 12.9 | 0.00 | 0.08 | 0.08 | 81 | 1012.9 |
| 20260505115703 | 15 | 6 | 6.4 | 12.9 | 0.00 | 0.08 | 0.08 | 81 | 1012.9 |
| 20260505115603 | 15 | 4 | 4.8 | 12.9 | 0.00 | 0.08 | 0.08 | 81 | 1012.9 |
| 20260505115503 | 15 | 4 | 4.8 | 12.9 | 0.00 | 0.08 | 0.08 | 81 | 1012.9 |
| 20260505115403 | 15 | 7 | 4.8 | 12.9 | 0.00 | 0.08 | 0.08 | 81 | 1012.9 |
| 20260505115305 | 15 | 10 | 4.8 | 14.5 | 0.00 | 0.08 | 0.08 | 81 | 1012.9 |
| 20260505115203 | 15 | 11 | 4.8 | 14.5 | 0.00 | 0.08 | 0.08 | 81 | 1012.9 |
| 20260505115103 | 15 | 10 | 4.8 | 14.5 | 0.00 | 0.08 | 0.08 | 81 | 1013.0 |
| 20260505115003 | 15 | 16 | 4.8 | 14.5 | 0.00 | 0.08 | 0.08 | 81 | 1013.0 |
| 20260505114903 | 15 | 17 | 4.8 | 14.5 | 0.00 | 0.08 | 0.08 | 80 | 1012.9 |
| 20260505114803 | 15 | 21 | 4.8 | 14.5 | 0.00 | 0.08 | 0.08 | 81 | 1013.0 |
| 20260505114703 | 15 | 22 | 4.8 | 14.5 | 0.00 | 0.08 | 0.08 | 81 | 1013.0 |
| 20260505114603 | 15 | 18 | 4.8 | 14.5 | 0.00 | 0.08 | 0.08 | 81 | 1012.9 |
| 20260505114503 | 15 | 15 | 4.8 | 14.5 | 0.00 | 0.08 | 0.08 | 81 | 1012.9 |
| 20260505114403 | 15 | 8 | 6.4 | 14.5 | 0.00 | 0.08 | 0.08 | 81 | 1013.0 |
| 20260505114303 | 15 | 6 | 6.4 | 12.9 | 0.00 | 0.08 | 0.08 | 82 | 1012.9 |
| 20260505114203 | 15 | 7 | 6.4 | 12.9 | 0.00 | 0.08 | 0.08 | 82 | 1012.9 |
| 20260505114103 | 15 | 8 | 6.4 | 12.9 | 0.00 | 0.08 | 0.08 | 82 | 1012.9 |
| 20260505114003 | 15 | 7 | 6.4 | 12.9 | 0.00 | 0.08 | 0.08 | 82 | 1012.9 |
| 20260505113903 | 15 | 12 | 6.4 | 14.5 | 0.00 | 0.08 | 0.08 | 82 | 1012.9 |
| 20260505113803 | 15 | 8 | 8.0 | 14.5 | 0.00 | 0.08 | 0.08 | 82 | 1012.8 |
| 20260505113703 | 15 | 9 | 8.0 | 14.5 | 0.00 | 0.08 | 0.08 | 82 | 1012.8 |
| 20260505113603 | 15 | 10 | 6.4 | 14.5 | 0.00 | 0.08 | 0.08 | 82 | 1012.9 |
| 20260505113503 | 15 | 10 | 6.4 | 14.5 | 0.00 | 0.08 | 0.08 | 82 | 1012.9 |
| 20260505113403 | 15 | 10 | 6.4 | 14.5 | 0.00 | 0.08 | 0.08 | 82 | 1012.9 |
| 20260505113303 | 15 | 9 | 6.4 | 16.1 | 0.00 | 0.08 | 0.08 | 83 | 1013.0 |
| 20260505113203 | 15 | 6 | 6.4 | 16.1 | 0.00 | 0.08 | 0.08 | 83 | 1013.0 |
| 20260505113103 | 15 | 6 | 8.0 | 16.1 | 0.00 | 0.08 | 0.08 | 83 | 1012.9 |
| 20260505113003 | 15 | 5 | 8.0 | 16.1 | 0.00 | 0.08 | 0.08 | 83 | 1012.9 |
| 20260505112903 | 15 | 360 | 8.0 | 16.1 | 0.00 | 0.08 | 0.08 | 83 | 1012.9 |
| 20260505112803 | 15 | 358 | 8.0 | 16.1 | 0.00 | 0.08 | 0.08 | 83 | 1012.9 |
| 20260505112703 | 15 | 358 | 8.0 | 16.1 | 0.00 | 0.08 | 0.08 | 83 | 1012.9 |
| 20260505112603 | 15 | 360 | 8.0 | 16.1 | 0.00 | 0.08 | 0.08 | 83 | 1013.0 |
| 20260505112503 | 15 | 1 | 8.0 | 16.1 | 0.00 | 0.08 | 0.08 | 83 | 1013.0 |
| 20260505112404 | 15 | 3 | 8.0 | 16.1 | 0.00 | 0.08 | 0.08 | 83 | 1013.0 |
| 20260505112305 | 15 | 6 | 8.0 | 16.1 | 0.00 | 0.08 | 0.08 | 83 | 1012.9 |
| 20260505112203 | 15 | 6 | 8.0 | 16.1 | 0.00 | 0.08 | 0.08 | 83 | 1012.9 |
| 20260505112103 | 15 | 4 | 8.0 | 16.1 | 0.00 | 0.08 | 0.08 | 83 | 1012.9 |
| 20260505112003 | 15 | 3 | 8.0 | 16.1 | 0.00 | 0.08 | 0.08 | 83 | 1012.9 |
| 20260505111903 | 15 | 4 | 8.0 | 16.1 | 0.00 | 0.08 | 0.08 | 83 | 1012.9 |
| 20260505111803 | 15 | 7 | 6.4 | 16.1 | 0.00 | 0.08 | 0.08 | 84 | 1012.9 |
| 20260505111703 | 15 | 5 | 6.4 | 16.1 | 0.00 | 0.08 | 0.08 | 84 | 1012.9 |
| 20260505111603 | 14 | 1 | 6.4 | 16.1 | 0.00 | 0.08 | 0.08 | 84 | 1012.9 |
| 20260505111503 | 14 | 358 | 6.4 | 16.1 | 0.00 | 0.08 | 0.08 | 84 | 1013.0 |
| 20260505111403 | 14 | 357 | 8.0 | 16.1 | 0.00 | 0.08 | 0.08 | 84 | 1013.0 |
| 20260505111303 | 14 | 355 | 8.0 | 16.1 | 0.00 | 0.08 | 0.08 | 84 | 1013.0 |
| 20260505111203 | 14 | 354 | 8.0 | 16.1 | 0.00 | 0.08 | 0.08 | 84 | 1013.0 |
| 20260505111103 | 14 | 354 | 8.0 | 14.5 | 0.00 | 0.08 | 0.08 | 84 | 1013.0 |
| 20260505111003 | 14 | 353 | 8.0 | 14.5 | 0.00 | 0.08 | 0.08 | 84 | 1013.1 |
| 20260505110903 | 14 | 352 | 8.0 | 14.5 | 0.00 | 0.08 | 0.08 | 84 | 1013.1 |
| 20260505110803 | 14 | 350 | 8.0 | 14.5 | 0.00 | 0.08 | 0.08 | 84 | 1013.2 |
| 20260505110703 | 14 | 350 | 8.0 | 14.5 | 0.00 | 0.08 | 0.08 | 84 | 1013.2 |
| 20260505110603 | 14 | 349 | 6.4 | 14.5 | 0.00 | 0.08 | 0.08 | 84 | 1013.2 |
| 20260505110503 | 14 | 350 | 6.4 | 14.5 | 0.00 | 0.08 | 0.08 | 84 | 1013.1 |
| 20260505110403 | 14 | 347 | 6.4 | 14.5 | 0.00 | 0.08 | 0.08 | 84 | 1013.1 |
| 20260505110303 | 14 | 344 | 4.8 | 14.5 | 0.00 | 0.08 | 0.08 | 84 | 1013.1 |
| 20260505110203 | 13 | 342 | 4.8 | 14.5 | 0.00 | 0.08 | 0.08 | 84 | 1013.2 |
| 20260505102203 | 13 | 5 | 11.3 | 17.7 | 0.00 | 0.08 | 0.08 | 85 | 1013.3 |
| 20260505102103 | 13 | 4 | 11.3 | 17.7 | 0.00 | 0.08 | 0.08 | 85 | 1013.2 |
| 20260505102003 | 13 | 4 | 11.3 | 17.7 | 0.00 | 0.08 | 0.08 | 85 | 1013.2 |
| 20260505101903 | 13 | 1 | 11.3 | 17.7 | 0.00 | 0.08 | 0.08 | 85 | 1013.2 |
| 20260505101803 | 13 | 360 | 11.3 | 17.7 | 0.00 | 0.08 | 0.08 | 85 | 1013.2 |
| 20260505101703 | 13 | 360 | 9.7 | 16.1 | 0.00 | 0.08 | 0.08 | 86 | 1013.2 |
| 20260505101603 | 13 | 1 | 9.7 | 16.1 | 0.00 | 0.08 | 0.08 | 86 | 1013.2 |
| 20260505101503 | 13 | 2 | 9.7 | 16.1 | 0.00 | 0.08 | 0.08 | 86 | 1013.2 |
| 20260505101403 | 13 | 1 | 9.7 | 16.1 | 0.00 | 0.08 | 0.08 | 86 | 1013.2 |
| 20260505101303 | 13 | 360 | 11.3 | 16.1 | 0.00 | 0.08 | 0.08 | 86 | 1013.2 |
| 20260505101203 | 13 | 359 | 11.3 | 16.1 | 0.00 | 0.08 | 0.08 | 86 | 1013.2 |
| 20260505101103 | 13 | 359 | 11.3 | 16.1 | 0.00 | 0.08 | 0.08 | 86 | 1013.2 |
| 20260505101003 | 13 | 359 | 9.7 | 16.1 | 0.00 | 0.08 | 0.08 | 86 | 1013.2 |
| 20260505100903 | 13 | 359 | 9.7 | 16.1 | 0.00 | 0.08 | 0.08 | 86 | 1013.2 |
| 20260505100804 | 13 | 359 | 9.7 | 16.1 | 0.00 | 0.08 | 0.08 | 86 | 1013.2 |
| 20260505100703 | 13 | 359 | 9.7 | 16.1 | 0.00 | 0.08 | 0.08 | 86 | 1013.2 |
| 20260505100603 | 13 | 358 | 8.0 | 16.1 | 0.00 | 0.08 | 0.08 | 86 | 1013.2 |
| 20260505100503 | 14 | 357 | 8.0 | 16.1 | 0.00 | 0.08 | 0.08 | 86 | 1013.2 |
| 20260505100403 | 14 | 357 | 6.4 | 16.1 | 0.00 | 0.08 | 0.08 | 87 | 1013.2 |
| 20260505100303 | 14 | 355 | 6.4 | 14.5 | 0.00 | 0.08 | 0.08 | 87 | 1013.1 |
| 20260505100204 | 14 | 355 | 6.4 | 16.1 | 0.00 | 0.08 | 0.08 | 87 | 1013.1 |
| 20260505100104 | 13 | 356 | 8.0 | 16.1 | 0.00 | 0.08 | 0.08 | 87 | 1013.1 |
| 20260505100004 | 13 | 355 | 8.0 | 16.1 | 0.00 | 0.08 | 0.08 | 87 | 1013.0 |
| 20260505095903 | 13 | 354 | 8.0 | 16.1 | 0.00 | 0.08 | 0.08 | 87 | 1013.0 |
| 20260505095803 | 13 | 351 | 8.0 | 16.1 | 0.00 | 0.08 | 0.08 | 87 | 1013.1 |
| 20260505095703 | 13 | 351 | 8.0 | 16.1 | 0.00 | 0.08 | 0.08 | 87 | 1013.1 |
| 20260505095603 | 13 | 350 | 8.0 | 16.1 | 0.00 | 0.08 | 0.08 | 86 | 1013.1 |
| 20260505095504 | 13 | 349 | 8.0 | 16.1 | 0.00 | 0.08 | 0.08 | 86 | 1013.1 |
| 20260505095403 | 13 | 350 | 8.0 | 16.1 | 0.00 | 0.08 | 0.08 | 86 | 1013.1 |
| 20260505095304 | 13 | 350 | 8.0 | 16.1 | 0.00 | 0.08 | 0.08 | 86 | 1013.2 |
| 20260505095203 | 13 | 350 | 8.0 | 14.5 | 0.00 | 0.08 | 0.08 | 87 | 1013.2 |
| 20260505095103 | 13 | 351 | 8.0 | 14.5 | 0.00 | 0.08 | 0.08 | 87 | 1013.2 |
| 20260505095003 | 13 | 350 | 8.0 | 14.5 | 0.00 | 0.08 | 0.08 | 87 | 1013.1 |
| 20260505094903 | 13 | 350 | 8.0 | 14.5 | 0.00 | 0.08 | 0.08 | 86 | 1013.1 |
| 20260505094803 | 13 | 350 | 6.4 | 14.5 | 0.00 | 0.08 | 0.08 | 86 | 1013.2 |
| 20260505094703 | 13 | 349 | 6.4 | 14.5 | 0.00 | 0.08 | 0.08 | 86 | 1013.2 |
| 20260505094603 | 13 | 350 | 6.4 | 14.5 | 0.00 | 0.08 | 0.08 | 86 | 1013.2 |
| 20260505094503 | 13 | 349 | 6.4 | 14.5 | 0.00 | 0.08 | 0.08 | 86 | 1013.2 |
| 20260505094403 | 13 | 347 | 6.4 | 14.5 | 0.00 | 0.08 | 0.08 | 86 | 1013.2 |
| 20260505094303 | 13 | 344 | 4.8 | 14.5 | 0.00 | 0.08 | 0.08 | 86 | 1013.2 |
| 20260505094203 | 13 | 342 | 4.8 | 14.5 | 0.00 | 0.08 | 0.08 | 86 | 1013.2 |
| 20260505094103 | 13 | 340 | 4.8 | 14.5 | 0.00 | 0.08 | 0.08 | 86 | 1013.2 |
| 20260505094003 | 13 | 339 | 4.8 | 14.5 | 0.00 | 0.08 | 0.08 | 86 | 1013.2 |
| 20260505093903 | 13 | 339 | 4.8 | 12.9 | 0.00 | 0.08 | 0.08 | 86 | 1013.2 |
| 20260505093803 | 13 | 338 | 4.8 | 12.9 | 0.00 | 0.08 | 0.08 | 86 | 1013.2 |
| 20260505093703 | 13 | 338 | 4.8 | 12.9 | 0.00 | 0.08 | 0.08 | 86 | 1013.2 |
| 20260505093603 | 13 | 336 | 4.8 | 12.9 | 0.00 | 0.08 | 0.08 | 86 | 1013.2 |
| 20260505093503 | 13 | 335 | 4.8 | 12.9 | 0.00 | 0.08 | 0.08 | 86 | 1013.3 |
| 20260505093403 | 13 | 335 | 6.4 | 12.9 | 0.00 | 0.08 | 0.08 | 86 | 1013.2 |
| 20260505093303 | 13 | 335 | 4.8 | 12.9 | 0.00 | 0.08 | 0.08 | 86 | 1013.2 |
| 20260505093203 | 13 | 335 | 4.8 | 12.9 | 0.00 | 0.08 | 0.08 | 86 | 1013.3 |
| 20260505093103 | 13 | 333 | 4.8 | 12.9 | 0.00 | 0.08 | 0.08 | 86 | 1013.3 |
| 20260505093004 | 13 | 332 | 4.8 | 11.3 | 0.00 | 0.08 | 0.08 | 86 | 1013.3 |
| 20260505092903 | 13 | 333 | 4.8 | 11.3 | 0.00 | 0.08 | 0.08 | 86 | 1013.3 |
| 20260505092804 | 13 | 334 | 4.8 | 11.3 | 0.00 | 0.08 | 0.08 | 86 | 1013.3 |
| 20260505092703 | 13 | 338 | 4.8 | 11.3 | 0.00 | 0.08 | 0.08 | 86 | 1013.3 |
| 20260505092603 | 13 | 340 | 4.8 | 11.3 | 0.00 | 0.08 | 0.08 | 86 | 1013.3 |
| 20260505092504 | 13 | 344 | 6.4 | 11.3 | 0.00 | 0.08 | 0.08 | 86 | 1013.2 |
| 20260505092404 | 13 | 348 | 6.4 | 12.9 | 0.00 | 0.08 | 0.08 | 86 | 1013.3 |
| 20260505092305 | 13 | 352 | 6.4 | 12.9 | 0.00 | 0.08 | 0.08 | 86 | 1013.3 |
| 20260505092203 | 13 | 354 | 6.4 | 12.9 | 0.00 | 0.08 | 0.08 | 86 | 1013.3 |
| 20260505092103 | 13 | 357 | 6.4 | 12.9 | 0.00 | 0.08 | 0.08 | 87 | 1013.2 |
| 20260505092003 | 13 | 359 | 6.4 | 12.9 | 0.00 | 0.08 | 0.08 | 86 | 1013.2 |
| 20260505091903 | 13 | 1 | 6.4 | 14.5 | 0.00 | 0.08 | 0.08 | 86 | 1013.3 |
| 20260505091803 | 13 | 360 | 8.0 | 14.5 | 0.00 | 0.08 | 0.08 | 86 | 1013.3 |
| 20260505091703 | 13 | 359 | 6.4 | 14.5 | 0.00 | 0.08 | 0.08 | 86 | 1013.3 |
| 20260505091603 | 13 | 360 | 6.4 | 14.5 | 0.00 | 0.08 | 0.08 | 86 | 1013.3 |
| 20260505091503 | 13 | 359 | 6.4 | 14.5 | 0.00 | 0.08 | 0.08 | 86 | 1013.3 |
| 20260505091403 | 13 | 357 | 6.4 | 14.5 | 0.00 | 0.08 | 0.08 | 86 | 1013.3 |
| 20260505091303 | 13 | 356 | 6.4 | 14.5 | 0.00 | 0.08 | 0.08 | 86 | 1013.3 |
| 20260505091203 | 13 | 355 | 6.4 | 14.5 | 0.00 | 0.08 | 0.08 | 86 | 1013.2 |
| 20260505091103 | 13 | 355 | 6.4 | 14.5 | 0.00 | 0.08 | 0.08 | 86 | 1013.2 |
| 20260505091003 | 13 | 354 | 4.8 | 14.5 | 0.00 | 0.08 | 0.08 | 86 | 1013.2 |
| 20260505090903 | 13 | 353 | 4.8 | 9.7 | 0.00 | 0.08 | 0.08 | 86 | 1013.2 |
| 20260505090803 | 13 | 354 | 4.8 | 9.7 | 0.00 | 0.08 | 0.08 | 86 | 1013.2 |
| 20260505090703 | 13 | 355 | 4.8 | 9.7 | 0.00 | 0.08 | 0.08 | 86 | 1013.1 |
| 20260505090603 | 13 | 356 | 4.8 | 9.7 | 0.00 | 0.08 | 0.08 | 86 | 1013.2 |
| 20260505090503 | 13 | 357 | 4.8 | 9.7 | 0.00 | 0.08 | 0.08 | 86 | 1013.2 |
| 20260505090403 | 13 | 359 | 4.8 | 9.7 | 0.00 | 0.08 | 0.08 | 86 | 1013.1 |
| 20260505090303 | 13 | 360 | 4.8 | 9.7 | 0.00 | 0.08 | 0.08 | 87 | 1013.0 |
| 20260505090203 | 13 | 3 | 4.8 | 9.7 | 0.00 | 0.08 | 0.08 | 86 | 1013.0 |
| 20260505090005 | 13 | 3 | 4.8 | 9.7 | 0.00 | 0.08 | 0.08 | 87 | 1013.1 |
| 20260505085903 | 13 | 6 | 4.8 | 9.7 | 0.00 | 0.08 | 0.08 | 87 | 1013.0 |
| 20260505085803 | 13 | 6 | 4.8 | 8.0 | 0.00 | 0.08 | 0.08 | 87 | 1013.0 |
| 20260505085703 | 13 | 6 | 4.8 | 9.7 | 0.00 | 0.08 | 0.08 | 87 | 1013.0 |
| 20260505085603 | 13 | 5 | 4.8 | 12.9 | 0.00 | 0.08 | 0.08 | 87 | 1013.1 |
| 20260505085503 | 13 | 7 | 4.8 | 12.9 | 0.00 | 0.08 | 0.08 | 87 | 1013.1 |
| 20260505085403 | 13 | 5 | 4.8 | 12.9 | 0.00 | 0.08 | 0.08 | 87 | 1013.0 |
| 20260505085304 | 13 | 3 | 4.8 | 12.9 | 0.00 | 0.08 | 0.08 | 87 | 1012.9 |
| 20260505085203 | 13 | 1 | 4.8 | 12.9 | 0.00 | 0.08 | 0.08 | 87 | 1012.9 |
| 20260505085103 | 13 | 355 | 4.8 | 12.9 | 0.00 | 0.08 | 0.08 | 86 | 1013.0 |
| 20260505085003 | 13 | 349 | 4.8 | 12.9 | 0.00 | 0.08 | 0.08 | 87 | 1013.0 |
| 20260505084903 | 13 | 345 | 4.8 | 12.9 | 0.00 | 0.08 | 0.08 | 86 | 1013.0 |
| 20260505084803 | 13 | 343 | 4.8 | 12.9 | 0.00 | 0.08 | 0.08 | 87 | 1013.0 |
| 20260505084703 | 13 | 341 | 4.8 | 12.9 | 0.00 | 0.08 | 0.08 | 87 | 1013.0 |
| 20260505084603 | 13 | 339 | 4.8 | 11.3 | 0.00 | 0.08 | 0.08 | 87 | 1013.0 |
| 20260505084503 | 13 | 340 | 4.8 | 11.3 | 0.00 | 0.08 | 0.08 | 87 | 1013.0 |
| 20260505084403 | 13 | 339 | 4.8 | 11.3 | 0.00 | 0.08 | 0.08 | 87 | 1013.0 |
| 20260505084304 | 13 | 339 | 4.8 | 11.3 | 0.00 | 0.08 | 0.08 | 87 | 1012.9 |
| 20260505084203 | 13 | 338 | 4.8 | 11.3 | 0.00 | 0.08 | 0.08 | 87 | 1012.9 |
| 20260505084104 | 13 | 343 | 4.8 | 11.3 | 0.00 | 0.08 | 0.08 | 87 | 1012.9 |
| 20260505084003 | 13 | 349 | 4.8 | 14.5 | 0.00 | 0.08 | 0.08 | 87 | 1012.9 |
| 20260505083903 | 13 | 351 | 6.4 | 14.5 | 0.00 | 0.08 | 0.08 | 87 | 1012.9 |
| 20260505083803 | 13 | 354 | 6.4 | 14.5 | 0.00 | 0.08 | 0.08 | 87 | 1012.9 |
| 20260505083703 | 13 | 356 | 6.4 | 14.5 | 0.00 | 0.08 | 0.08 | 87 | 1012.9 |
| 20260505083604 | 13 | 357 | 6.4 | 14.5 | 0.00 | 0.08 | 0.08 | 87 | 1012.9 |
| 20260505083503 | 13 | 356 | 6.4 | 14.5 | 0.00 | 0.08 | 0.08 | 87 | 1012.9 |
| 20260505083403 | 13 | 358 | 8.0 | 14.5 | 0.00 | 0.08 | 0.08 | 87 | 1012.9 |
| 20260505083303 | 13 | 359 | 8.0 | 14.5 | 0.00 | 0.08 | 0.08 | 87 | 1012.9 |
| 20260505083203 | 13 | 1 | 8.0 | 16.1 | 0.00 | 0.08 | 0.08 | 87 | 1012.9 |
| 20260505083103 | 13 | 360 | 8.0 | 16.1 | 0.00 | 0.08 | 0.08 | 87 | 1012.9 |
| 20260505083003 | 13 | 359 | 8.0 | 16.1 | 0.00 | 0.08 | 0.08 | 87 | 1012.9 |
| 20260505082904 | 13 | 358 | 8.0 | 16.1 | 0.00 | 0.08 | 0.08 | 87 | 1012.9 |
| 20260505082804 | 13 | 357 | 8.0 | 16.1 | 0.00 | 0.08 | 0.08 | 87 | 1012.9 |
| 20260505082703 | 13 | 358 | 8.0 | 16.1 | 0.00 | 0.08 | 0.08 | 87 | 1012.9 |
| 20260505082603 | 13 | 357 | 8.0 | 16.1 | 0.00 | 0.08 | 0.08 | 87 | 1012.9 |
| 20260505082503 | 13 | 357 | 6.4 | 16.1 | 0.00 | 0.08 | 0.08 | 87 | 1012.8 |
| 20260505082403 | 13 | 356 | 6.4 | 16.1 | 0.00 | 0.08 | 0.08 | 87 | 1012.8 |
| 20260505082304 | 13 | 356 | 6.4 | 16.1 | 0.00 | 0.08 | 0.08 | 87 | 1013.0 |
| 20260505082203 | 13 | 356 | 4.8 | 14.5 | 0.00 | 0.08 | 0.08 | 87 | 1012.9 |
| 20260505082103 | 13 | 356 | 4.8 | 12.9 | 0.00 | 0.08 | 0.08 | 87 | 1012.9 |
| 20260505082003 | 13 | 358 | 4.8 | 12.9 | 0.00 | 0.08 | 0.08 | 87 | 1013.0 |
| 20260505081903 | 13 | 358 | 4.8 | 12.9 | 0.00 | 0.08 | 0.08 | 87 | 1013.0 |
| 20260505081803 | 13 | 358 | 4.8 | 12.9 | 0.00 | 0.08 | 0.08 | 87 | 1013.0 |
| 20260505081703 | 13 | 358 | 3.2 | 8.0 | 0.00 | 0.08 | 0.08 | 87 | 1012.9 |
| 20260505081603 | 13 | 357 | 4.8 | 8.0 | 0.00 | 0.08 | 0.08 | 87 | 1012.9 |
| 20260505081503 | 13 | 356 | 4.8 | 8.0 | 0.00 | 0.08 | 0.08 | 88 | 1012.9 |
| 20260505081403 | 13 | 354 | 4.8 | 12.9 | 0.00 | 0.08 | 0.08 | 88 | 1013.0 |
| 20260505081303 | 13 | 353 | 4.8 | 12.9 | 0.00 | 0.08 | 0.08 | 87 | 1013.0 |
| 20260505081203 | 13 | 351 | 4.8 | 12.9 | 0.00 | 0.08 | 0.08 | 87 | 1012.8 |
| 20260505081103 | 13 | 351 | 4.8 | 12.9 | 0.00 | 0.08 | 0.08 | 88 | 1012.8 |
| 20260505081003 | 13 | 348 | 4.8 | 12.9 | 0.00 | 0.08 | 0.08 | 87 | 1012.9 |
| 20260505080903 | 13 | 348 | 4.8 | 12.9 | 0.00 | 0.08 | 0.08 | 87 | 1012.8 |
| 20260505080803 | 13 | 348 | 4.8 | 12.9 | 0.00 | 0.08 | 0.08 | 87 | 1012.8 |
| 20260505080703 | 13 | 345 | 4.8 | 12.9 | 0.00 | 0.08 | 0.08 | 87 | 1012.8 |
| 20260505080603 | 13 | 345 | 4.8 | 12.9 | 0.00 | 0.08 | 0.08 | 87 | 1012.8 |
| 20260505080503 | 13 | 345 | 4.8 | 12.9 | 0.00 | 0.08 | 0.08 | 87 | 1012.8 |
| 20260505080403 | 13 | 344 | 4.8 | 11.3 | 0.00 | 0.08 | 0.08 | 87 | 1012.9 |
| 20260505080303 | 13 | 343 | 4.8 | 11.3 | 0.00 | 0.08 | 0.08 | 87 | 1012.9 |
| 20260505080203 | 13 | 343 | 4.8 | 11.3 | 0.00 | 0.08 | 0.08 | 87 | 1012.9 |
| 20260505080103 | 13 | 341 | 4.8 | 11.3 | 0.00 | 0.08 | 0.08 | 87 | 1012.9 |
| 20260505080003 | 13 | 341 | 4.8 | 9.7 | 0.00 | 0.08 | 0.08 | 87 | 1012.9 |
| 20260505075903 | 13 | 338 | 4.8 | 9.7 | 0.00 | 0.08 | 0.08 | 87 | 1012.9 |
| 20260505075803 | 13 | 339 | 4.8 | 9.7 | 0.00 | 0.08 | 0.08 | 87 | 1012.9 |
| 20260505075703 | 13 | 338 | 3.2 | 9.7 | 0.00 | 0.08 | 0.08 | 87 | 1013.0 |
| 20260505075603 | 13 | 335 | 4.8 | 9.7 | 0.00 | 0.08 | 0.08 | 87 | 1013.0 |
| 20260505075503 | 13 | 331 | 4.8 | 9.7 | 0.00 | 0.08 | 0.08 | 87 | 1013.0 |
| 20260505075403 | 13 | 330 | 4.8 | 9.7 | 0.00 | 0.08 | 0.08 | 87 | 1013.0 |
| 20260505075304 | 13 | 328 | 4.8 | 9.7 | 0.00 | 0.08 | 0.08 | 87 | 1013.0 |
| 20260505075203 | 13 | 326 | 4.8 | 9.7 | 0.00 | 0.08 | 0.08 | 87 | 1013.0 |
| 20260505075103 | 13 | 325 | 4.8 | 9.7 | 0.00 | 0.08 | 0.08 | 87 | 1013.0 |
| 20260505075003 | 13 | 324 | 4.8 | 9.7 | 0.00 | 0.08 | 0.08 | 87 | 1013.0 |
| 20260505074904 | 13 | 324 | 4.8 | 9.7 | 0.00 | 0.08 | 0.08 | 87 | 1013.0 |
| 20260505074803 | 13 | 321 | 4.8 | 9.7 | 0.00 | 0.08 | 0.08 | 87 | 1013.0 |
| 20260505074703 | 13 | 319 | 4.8 | 9.7 | 0.00 | 0.08 | 0.08 | 87 | 1013.0 |
| 20260505074603 | 13 | 320 | 4.8 | 11.3 | 0.00 | 0.08 | 0.08 | 87 | 1013.0 |
| 20260505074503 | 13 | 318 | 4.8 | 11.3 | 0.00 | 0.08 | 0.08 | 87 | 1013.0 |
| 20260505074403 | 13 | 314 | 4.8 | 11.3 | 0.00 | 0.08 | 0.08 | 87 | 1013.0 |
| 20260505074303 | 13 | 315 | 4.8 | 11.3 | 0.00 | 0.08 | 0.08 | 87 | 1013.0 |
| 20260505074203 | 13 | 314 | 4.8 | 11.3 | 0.00 | 0.08 | 0.08 | 87 | 1012.9 |
| 20260505074103 | 13 | 312 | 4.8 | 11.3 | 0.00 | 0.08 | 0.08 | 87 | 1012.9 |
| 20260505074003 | 13 | 313 | 4.8 | 11.3 | 0.00 | 0.08 | 0.08 | 87 | 1012.9 |
| 20260505073903 | 13 | 313 | 4.8 | 11.3 | 0.00 | 0.08 | 0.08 | 87 | 1012.9 |
| 20260505073803 | 13 | 312 | 4.8 | 11.3 | 0.00 | 0.08 | 0.08 | 87 | 1012.9 |
| 20260505073703 | 13 | 313 | 4.8 | 11.3 | 0.00 | 0.08 | 0.08 | 87 | 1012.9 |
| 20260505073603 | 13 | 312 | 3.2 | 11.3 | 0.00 | 0.08 | 0.08 | 87 | 1012.9 |
| 20260505073503 | 13 | 308 | 3.2 | 11.3 | 0.00 | 0.08 | 0.08 | 87 | 1012.9 |
| 20260505073403 | 13 | 308 | 3.2 | 11.3 | 0.00 | 0.08 | 0.08 | 87 | 1012.9 |
| 20260505073303 | 13 | 303 | 3.2 | 9.7 | 0.00 | 0.08 | 0.08 | 87 | 1012.8 |
| 20260505073203 | 13 | 299 | 3.2 | 9.7 | 0.00 | 0.08 | 0.08 | 87 | 1012.8 |
| 20260505073103 | 13 | 296 | 3.2 | 11.3 | 0.00 | 0.08 | 0.08 | 87 | 1012.9 |
| 20260505073003 | 13 | 291 | 3.2 | 11.3 | 0.00 | 0.08 | 0.08 | 87 | 1012.9 |
| 20260505072903 | 12 | 290 | 4.8 | 11.3 | 0.00 | 0.08 | 0.08 | 87 | 1012.9 |
| 20260505072803 | 12 | 289 | 4.8 | 11.3 | 0.00 | 0.08 | 0.08 | 87 | 1012.9 |
| 20260505072703 | 12 | 287 | 4.8 | 11.3 | 0.03 | 0.08 | 0.08 | 87 | 1012.9 |
| 20260505072603 | 12 | 286 | 4.8 | 11.3 | 0.03 | 0.08 | 0.08 | 87 | 1012.8 |
| 20260505072503 | 12 | 287 | 4.8 | 11.3 | 0.03 | 0.08 | 0.08 | 87 | 1012.8 |
| 20260505072403 | 12 | 288 | 4.8 | 11.3 | 0.03 | 0.08 | 0.08 | 87 | 1012.8 |
| 20260505072305 | 12 | 287 | 4.8 | 11.3 | 0.03 | 0.08 | 0.08 | 87 | 1012.8 |
| 20260505072203 | 12 | 287 | 4.8 | 11.3 | 0.03 | 0.08 | 0.08 | 87 | 1012.8 |
| 20260505072103 | 12 | 285 | 4.8 | 11.3 | 0.03 | 0.08 | 0.08 | 87 | 1012.8 |
| 20260505072003 | 12 | 286 | 4.8 | 11.3 | 0.03 | 0.08 | 0.08 | 87 | 1012.8 |
| 20260505071903 | 12 | 285 | 4.8 | 11.3 | 0.03 | 0.08 | 0.08 | 87 | 1012.8 |
| 20260505071803 | 12 | 283 | 4.8 | 11.3 | 0.03 | 0.08 | 0.08 | 87 | 1012.8 |
| 20260505071703 | 12 | 284 | 4.8 | 11.3 | 0.03 | 0.08 | 0.08 | 87 | 1012.8 |
| 20260505071603 | 13 | 284 | 3.2 | 11.3 | 0.03 | 0.08 | 0.08 | 87 | 1012.8 |
| 20260505071503 | 13 | 284 | 3.2 | 9.7 | 0.03 | 0.08 | 0.08 | 87 | 1012.9 |
| 20260505071403 | 13 | 283 | 3.2 | 6.4 | 0.03 | 0.08 | 0.08 | 87 | 1012.9 |
| 20260505071303 | 12 | 290 | 3.2 | 6.4 | 0.03 | 0.08 | 0.08 | 87 | 1012.9 |
| 20260505071203 | 12 | 295 | 3.2 | 6.4 | 0.03 | 0.08 | 0.08 | 87 | 1012.9 |
| 20260505071103 | 12 | 299 | 3.2 | 12.9 | 0.03 | 0.08 | 0.08 | 87 | 1012.8 |
| 20260505071003 | 12 | 300 | 3.2 | 12.9 | 0.03 | 0.08 | 0.08 | 87 | 1012.8 |
| 20260505070903 | 12 | 303 | 3.2 | 12.9 | 0.03 | 0.08 | 0.08 | 87 | 1012.8 |
| 20260505070804 | 12 | 305 | 4.8 | 12.9 | 0.03 | 0.08 | 0.08 | 87 | 1012.8 |
| 20260505070703 | 12 | 308 | 3.2 | 12.9 | 0.03 | 0.08 | 0.08 | 86 | 1012.8 |
| 20260505070603 | 12 | 308 | 4.8 | 12.9 | 0.03 | 0.08 | 0.08 | 86 | 1012.8 |
| 20260505070503 | 12 | 309 | 4.8 | 12.9 | 0.03 | 0.08 | 0.08 | 86 | 1012.8 |
| 20260505070403 | 12 | 309 | 4.8 | 12.9 | 0.03 | 0.08 | 0.08 | 86 | 1012.8 |
| 20260505070303 | 12 | 310 | 3.2 | 12.9 | 0.03 | 0.08 | 0.08 | 86 | 1012.7 |
| 20260505070203 | 12 | 310 | 3.2 | 12.9 | 0.03 | 0.08 | 0.08 | 86 | 1012.8 |
| 20260505070004 | 12 | 314 | 3.2 | 8.0 | 0.03 | 0.08 | 0.08 | 86 | 1012.9 |
| 20260505065903 | 12 | 315 | 3.2 | 8.0 | 0.03 | 0.08 | 0.08 | 86 | 1012.9 |
| 20260505065803 | 12 | 319 | 3.2 | 8.0 | 0.03 | 0.08 | 0.08 | 86 | 1012.9 |
| 20260505065703 | 12 | 321 | 3.2 | 8.0 | 0.03 | 0.08 | 0.08 | 86 | 1012.9 |
| 20260505065603 | 12 | 326 | 3.2 | 8.0 | 0.03 | 0.08 | 0.08 | 86 | 1012.9 |
| 20260505065503 | 12 | 327 | 3.2 | 8.0 | 0.03 | 0.08 | 0.08 | 86 | 1012.9 |
| 20260505065403 | 12 | 329 | 3.2 | 8.0 | 0.03 | 0.08 | 0.08 | 86 | 1012.9 |
| 20260505065304 | 12 | 332 | 3.2 | 8.0 | 0.03 | 0.08 | 0.08 | 86 | 1012.9 |
| 20260505065203 | 12 | 333 | 3.2 | 8.0 | 0.03 | 0.08 | 0.08 | 86 | 1012.8 |
| 20260505065103 | 12 | 333 | 3.2 | 8.0 | 0.05 | 0.08 | 0.08 | 86 | 1012.8 |
| 20260505065003 | 12 | 334 | 3.2 | 8.0 | 0.05 | 0.08 | 0.08 | 86 | 1012.9 |
| 20260505064903 | 12 | 336 | 3.2 | 8.0 | 0.05 | 0.08 | 0.08 | 86 | 1012.8 |
| 20260505064803 | 12 | 339 | 1.6 | 8.0 | 0.05 | 0.08 | 0.08 | 86 | 1012.8 |
| 20260505064703 | 12 | 337 | 1.6 | 4.8 | 0.05 | 0.08 | 0.08 | 86 | 1012.8 |
| 20260505064603 | 12 | 332 | 1.6 | 4.8 | 0.05 | 0.08 | 0.08 | 86 | 1012.8 |
| 20260505064503 | 12 | 335 | 1.6 | 4.8 | 0.05 | 0.08 | 0.08 | 86 | 1012.9 |
| 20260505064403 | 12 | 337 | 1.6 | 4.8 | 0.05 | 0.08 | 0.08 | 86 | 1012.8 |
| 20260505064303 | 12 | 332 | 1.6 | 4.8 | 0.05 | 0.08 | 0.08 | 86 | 1012.8 |
| 20260505064203 | 12 | 327 | 1.6 | 4.8 | 0.05 | 0.08 | 0.08 | 86 | 1012.8 |
| 20260505064103 | 12 | 324 | 1.6 | 6.4 | 0.05 | 0.08 | 0.08 | 86 | 1012.8 |
| 20260505064003 | 12 | 324 | 1.6 | 6.4 | 0.05 | 0.08 | 0.08 | 86 | 1012.8 |
| 20260505063903 | 12 | 325 | 1.6 | 6.4 | 0.05 | 0.08 | 0.08 | 86 | 1012.8 |
| 20260505063803 | 12 | 322 | 1.6 | 6.4 | 0.05 | 0.08 | 0.08 | 86 | 1012.8 |
| 20260505063703 | 12 | 322 | 1.6 | 6.4 | 0.05 | 0.08 | 0.08 | 86 | 1012.8 |
| 20260505063603 | 12 | 320 | 1.6 | 6.4 | 0.05 | 0.08 | 0.08 | 86 | 1012.8 |
| 20260505063503 | 12 | 317 | 1.6 | 6.4 | 0.05 | 0.08 | 0.08 | 86 | 1012.8 |
| 20260505063403 | 12 | 313 | 1.6 | 6.4 | 0.05 | 0.08 | 0.08 | 86 | 1012.9 |
| 20260505063303 | 12 | 312 | 1.6 | 6.4 | 0.05 | 0.08 | 0.08 | 86 | 1012.9 |
| 20260505063203 | 12 | 311 | 1.6 | 6.4 | 0.05 | 0.08 | 0.08 | 86 | 1012.8 |
| 20260505063103 | 12 | 308 | 1.6 | 4.8 | 0.05 | 0.08 | 0.08 | 86 | 1012.9 |
| 20260505063003 | 12 | 308 | 1.6 | 4.8 | 0.05 | 0.08 | 0.08 | 86 | 1012.9 |
| 20260505062903 | 12 | 301 | 1.6 | 4.8 | 0.08 | 0.08 | 0.08 | 86 | 1013.0 |
| 20260505062803 | 12 | 298 | 1.6 | 6.4 | 0.08 | 0.08 | 0.08 | 86 | 1013.0 |
| 20260505062703 | 12 | 293 | 3.2 | 6.4 | 0.05 | 0.05 | 0.05 | 86 | 1013.0 |
| 20260505062603 | 12 | 289 | 3.2 | 6.4 | 0.05 | 0.05 | 0.05 | 86 | 1012.9 |
| 20260505062503 | 12 | 288 | 3.2 | 9.7 | 0.05 | 0.05 | 0.05 | 86 | 1012.9 |
| 20260505062403 | 12 | 287 | 3.2 | 9.7 | 0.05 | 0.05 | 0.05 | 86 | 1013.0 |
| 20260505062304 | 12 | 286 | 3.2 | 9.7 | 0.05 | 0.05 | 0.05 | 86 | 1013.0 |
| 20260505062203 | 12 | 285 | 3.2 | 9.7 | 0.05 | 0.05 | 0.05 | 86 | 1013.0 |
| 20260505062103 | 12 | 286 | 3.2 | 9.7 | 0.05 | 0.05 | 0.05 | 86 | 1013.0 |
| 20260505062003 | 12 | 283 | 4.8 | 9.7 | 0.05 | 0.05 | 0.05 | 86 | 1013.0 |
| 20260505061903 | 12 | 281 | 4.8 | 11.3 | 0.05 | 0.05 | 0.05 | 86 | 1013.0 |
| 20260505061804 | 12 | 282 | 4.8 | 11.3 | 0.05 | 0.05 | 0.05 | 86 | 1013.0 |
| 20260505061703 | 12 | 283 | 4.8 | 11.3 | 0.05 | 0.05 | 0.05 | 86 | 1013.0 |
| 20260505061603 | 12 | 285 | 4.8 | 11.3 | 0.05 | 0.05 | 0.05 | 86 | 1013.0 |
| 20260505061503 | 12 | 284 | 4.8 | 11.3 | 0.05 | 0.05 | 0.05 | 86 | 1013.0 |
| 20260505061403 | 12 | 282 | 4.8 | 14.5 | 0.05 | 0.05 | 0.05 | 86 | 1013.0 |
| 20260505061303 | 12 | 280 | 6.4 | 14.5 | 0.05 | 0.05 | 0.05 | 86 | 1012.9 |
| 20260505061203 | 12 | 279 | 6.4 | 14.5 | 0.05 | 0.05 | 0.05 | 86 | 1012.9 |
| 20260505061103 | 12 | 279 | 6.4 | 14.5 | 0.05 | 0.05 | 0.05 | 86 | 1013.0 |
| 20260505061003 | 12 | 279 | 6.4 | 14.5 | 0.05 | 0.05 | 0.05 | 86 | 1013.0 |
| 20260505060903 | 12 | 279 | 6.4 | 14.5 | 0.05 | 0.05 | 0.05 | 86 | 1013.0 |
| 20260505060803 | 12 | 278 | 6.4 | 14.5 | 0.05 | 0.05 | 0.05 | 86 | 1012.9 |
| 20260505060703 | 12 | 277 | 6.4 | 14.5 | 0.05 | 0.05 | 0.05 | 86 | 1012.9 |
| 20260505060603 | 12 | 277 | 8.0 | 14.5 | 0.05 | 0.05 | 0.05 | 86 | 1012.9 |
| 20260505060503 | 12 | 278 | 8.0 | 14.5 | 0.05 | 0.05 | 0.05 | 86 | 1012.9 |
| 20260505060403 | 12 | 278 | 6.4 | 14.5 | 0.05 | 0.05 | 0.05 | 86 | 1012.9 |
| 20260505060303 | 12 | 279 | 6.4 | 12.9 | 0.05 | 0.05 | 0.05 | 86 | 1012.9 |
| 20260505060203 | 12 | 279 | 6.4 | 12.9 | 0.05 | 0.05 | 0.05 | 86 | 1012.9 |
| 20260505060103 | 13 | 278 | 6.4 | 12.9 | 0.05 | 0.05 | 0.05 | 86 | 1012.9 |
| 20260505060004 | 13 | 277 | 6.4 | 12.9 | 0.05 | 0.05 | 0.05 | 86 | 1012.9 |